Wetterdaten: aktuell Mittwoch, 18.09.2019 19:56
Datum Zeit Temp. 2m Temp. 5cm Temp. Innen Feuchte 2m Feuchte Inne Luftdruck Regen Wind Richtung Richtung Taupunkt Windchill Windben
18.09.2019 19:56 12,7 C 13,5 C 24,3 C 66 % 51 % 1020,6 hPa 0,0 l/m 3,4 km/h (1 Bft) O-NO 67 6,5 C 12,7 C 3,1 km/h (1 Bft)
18.09.2019 19:54 12,7 C 13,5 C 24,3 C 66 % 51 % 1020,6 hPa 0,0 l/m 3,9 km/h (1 Bft) O-NO 67 6,5 C 12,7 C 3,1 km/h (1 Bft)
18.09.2019 19:52 12,7 C 13,5 C 24,3 C 65 % 50 % 1020,6 hPa 0,0 l/m 4,1 km/h (1 Bft) O-NO 67 6,3 C 12,7 C 4,3 km/h (1 Bft)
18.09.2019 19:50 12,7 C 13,4 C 24,3 C 65 % 50 % 1020,6 hPa 0,0 l/m 4,3 km/h (1 Bft) O-NO 67 6,3 C 12,7 C 5,8 km/h (2 Bft)
18.09.2019 19:48 12,7 C 13,4 C 24,3 C 65 % 50 % 1020,6 hPa 0,0 l/m 4,3 km/h (1 Bft) O-NO 67 6,3 C 12,7 C 5,8 km/h (2 Bft)
18.09.2019 19:46 12,7 C 13,4 C 24,2 C 65 % 50 % 1020,6 hPa 0,0 l/m 4,1 km/h (1 Bft) O-NO 67 6,3 C 12,7 C 4,6 km/h (1 Bft)
18.09.2019 19:44 12,9 C 13,4 C 24,2 C 65 % 50 % 1020,6 hPa 0,0 l/m 4,1 km/h (1 Bft) O-NO 67 6,5 C 12,9 C 4,6 km/h (1 Bft)
18.09.2019 19:42 12,9 C 13,4 C 24,2 C 65 % 50 % 1020,6 hPa 0,0 l/m 4,3 km/h (1 Bft) O-NO 67 6,5 C 12,9 C 4,6 km/h (1 Bft)
18.09.2019 19:40 12,9 C 13,3 C 24,2 C 65 % 50 % 1020,6 hPa 0,0 l/m 3,9 km/h (1 Bft) O-NO 67 6,5 C 12,9 C 4,1 km/h (1 Bft)
18.09.2019 19:38 12,9 C 13,2 C 24,1 C 65 % 50 % 1020,2 hPa 0,0 l/m 3,4 km/h (1 Bft) O-NO 67 6,5 C 12,9 C 4,3 km/h (1 Bft)
18.09.2019 19:36 12,9 C 13,0 C 24,1 C 65 % 50 % 1020,2 hPa 0,0 l/m 3,4 km/h (1 Bft) NO 45 6,5 C 12,9 C 6,5 km/h (2 Bft)
18.09.2019 19:34 12,9 C 13,1 C 24,1 C 65 % 50 % 1020,2 hPa 0,0 l/m 3,1 km/h (1 Bft) O-NO 67 6,5 C 12,9 C 6,5 km/h (2 Bft)
18.09.2019 19:32 13,0 C 13,1 C 24,1 C 64 % 50 % 1020,2 hPa 0,0 l/m 2,7 km/h (1 Bft) N-NO 22 6,4 C 13,0 C 6,0 km/h (2 Bft)
18.09.2019 19:30 13,0 C 13,3 C 24,1 C 63 % 50 % 1020,2 hPa 0,0 l/m 2,4 km/h (1 Bft) O-NO 67 6,1 C 13,0 C 2,9 km/h (1 Bft)
18.09.2019 19:28 13,0 C 13,3 C 24,1 C 63 % 50 % 1020,2 hPa 0,0 l/m 2,7 km/h (1 Bft) O-NO 67 6,1 C 13,0 C 3,6 km/h (1 Bft)
18.09.2019 19:26 13,1 C 13,4 C 24,0 C 63 % 50 % 1020,2 hPa 0,0 l/m 2,9 km/h (1 Bft) NO 45 6,2 C 13,1 C 4,1 km/h (1 Bft)
18.09.2019 19:24 13,1 C 13,2 C 24,0 C 63 % 50 % 1020,2 hPa 0,0 l/m 3,1 km/h (1 Bft) O-NO 67 6,2 C 13,1 C 4,1 km/h (1 Bft)
18.09.2019 19:22 13,2 C 13,3 C 24,0 C 62 % 50 % 1020,2 hPa 0,0 l/m 3,4 km/h (1 Bft) O 90 6,1 C 13,2 C 3,9 km/h (1 Bft)
18.09.2019 19:20 13,3 C 13,3 C 23,9 C 62 % 50 % 1020,2 hPa 0,0 l/m 3,4 km/h (1 Bft) O-NO 67 6,2 C 13,3 C 4,8 km/h (1 Bft)
18.09.2019 19:18 13,3 C 13,4 C 23,9 C 62 % 50 % 1020,1 hPa 0,0 l/m 2,7 km/h (1 Bft) O-NO 67 6,2 C 13,3 C 4,8 km/h (1 Bft)
18.09.2019 19:16 13,3 C 13,5 C 23,9 C 62 % 50 % 1020,1 hPa 0,0 l/m 2,4 km/h (1 Bft) O-SO 112 6,2 C 13,3 C 5,3 km/h (1 Bft)
18.09.2019 19:14 13,4 C 13,6 C 23,9 C 62 % 50 % 1020,1 hPa 0,0 l/m 2,7 km/h (1 Bft) O-NO 67 6,3 C 13,4 C 5,3 km/h (1 Bft)
18.09.2019 19:12 13,5 C 13,6 C 23,9 C 62 % 50 % 1020,1 hPa 0,0 l/m 3,1 km/h (1 Bft) O-NO 67 6,4 C 13,5 C 4,1 km/h (1 Bft)
18.09.2019 19:10 13,5 C 13,7 C 23,9 C 62 % 50 % 1020,1 hPa 0,0 l/m 3,6 km/h (1 Bft) O-NO 67 6,4 C 13,5 C 0,0 km/h (0 Bft)
18.09.2019 19:08 13,6 C 13,8 C 23,8 C 62 % 50 % 1020,1 hPa 0,0 l/m 4,8 km/h (1 Bft) O-NO 67 6,5 C 13,6 C 3,9 km/h (1 Bft)
18.09.2019 19:06 13,6 C 13,9 C 23,8 C 61 % 50 % 1020,1 hPa 0,0 l/m 6,0 km/h (2 Bft) SO 135 6,2 C 13,6 C 7,0 km/h (2 Bft)
18.09.2019 19:04 13,6 C 14,0 C 23,8 C 61 % 50 % 1020,1 hPa 0,0 l/m 6,3 km/h (2 Bft) O 90 6,2 C 13,6 C 9,4 km/h (2 Bft)
18.09.2019 19:02 13,7 C 14,1 C 23,8 C 61 % 49 % 1020,1 hPa 0,0 l/m 6,3 km/h (2 Bft) O-SO 112 6,3 C 13,7 C 9,4 km/h (2 Bft)
18.09.2019 19:00 13,7 C 14,2 C 23,8 C 61 % 49 % 1020,1 hPa 0,0 l/m 6,8 km/h (2 Bft) SO 135 6,3 C 13,5 C 9,2 km/h (2 Bft)
18.09.2019 18:58 13,8 C 14,1 C 23,8 C 61 % 49 % 1019,9 hPa 0,0 l/m 7,0 km/h (2 Bft) O-SO 112 6,4 C 13,4 C 9,2 km/h (2 Bft)
18.09.2019 18:56 13,8 C 14,2 C 23,8 C 61 % 49 % 1019,9 hPa 0,0 l/m 6,8 km/h (2 Bft) SO 135 6,4 C 13,6 C 9,2 km/h (2 Bft)
18.09.2019 18:54 13,8 C 14,3 C 23,7 C 61 % 49 % 1019,9 hPa 0,0 l/m 6,8 km/h (2 Bft) S-SO 157 6,4 C 13,6 C 9,2 km/h (2 Bft)
18.09.2019 18:52 13,9 C 14,3 C 23,7 C 61 % 49 % 1019,9 hPa 0,0 l/m 7,0 km/h (2 Bft) S-SW 202 6,5 C 13,5 C 9,2 km/h (2 Bft)
18.09.2019 18:50 13,9 C 14,4 C 23,7 C 61 % 49 % 1019,9 hPa 0,0 l/m 6,5 km/h (2 Bft) S-SO 157 6,5 C 13,9 C 9,2 km/h (2 Bft)
18.09.2019 18:48 14,0 C 14,4 C 23,7 C 61 % 49 % 1019,9 hPa 0,0 l/m 6,3 km/h (2 Bft) S 180 6,6 C 14,0 C 9,2 km/h (2 Bft)
18.09.2019 18:46 14,0 C 14,4 C 23,7 C 61 % 49 % 1019,9 hPa 0,0 l/m 6,8 km/h (2 Bft) S-SO 157 6,6 C 13,8 C 6,8 km/h (2 Bft)
18.09.2019 18:44 14,0 C 14,4 C 23,7 C 61 % 49 % 1019,9 hPa 0,0 l/m 7,2 km/h (2 Bft) S 180 6,6 C 13,5 C 8,9 km/h (2 Bft)
18.09.2019 18:42 14,0 C 14,4 C 23,7 C 61 % 50 % 1019,9 hPa 0,0 l/m 7,5 km/h (2 Bft) S-SO 157 6,6 C 13,3 C 10,1 km/h (2 Bft)
18.09.2019 18:40 14,0 C 14,5 C 23,7 C 61 % 50 % 1019,9 hPa 0,0 l/m 7,2 km/h (2 Bft) S 180 6,6 C 13,5 C 10,1 km/h (2 Bft)
18.09.2019 18:38 14,0 C 14,5 C 23,8 C 61 % 50 % 1019,8 hPa 0,0 l/m 7,5 km/h (2 Bft) S 180 6,6 C 13,3 C 13,5 km/h (3 Bft)
18.09.2019 18:36 14,0 C 14,6 C 23,8 C 61 % 50 % 1019,8 hPa 0,0 l/m 7,2 km/h (2 Bft) S-SO 157 6,6 C 13,5 C 13,5 km/h (3 Bft)
18.09.2019 18:34 14,1 C 14,6 C 23,8 C 61 % 49 % 1019,8 hPa 0,0 l/m 6,8 km/h (2 Bft) S 180 6,7 C 13,9 C 8,9 km/h (2 Bft)
18.09.2019 18:32 14,1 C 14,7 C 23,8 C 61 % 49 % 1019,8 hPa 0,0 l/m 6,8 km/h (2 Bft) S-SO 157 6,7 C 13,9 C 8,9 km/h (2 Bft)
18.09.2019 18:30 14,1 C 14,7 C 23,8 C 61 % 49 % 1019,8 hPa 0,0 l/m 7,5 km/h (2 Bft) S-SO 157 6,7 C 13,4 C 9,7 km/h (2 Bft)
18.09.2019 18:28 14,1 C 14,7 C 23,8 C 61 % 49 % 1019,8 hPa 0,0 l/m 7,7 km/h (2 Bft) S-SO 157 6,7 C 13,3 C 9,7 km/h (2 Bft)
18.09.2019 18:26 14,1 C 14,7 C 23,8 C 61 % 50 % 1019,8 hPa 0,0 l/m 7,7 km/h (2 Bft) S 180 6,7 C 13,3 C 10,9 km/h (2 Bft)
18.09.2019 18:24 14,1 C 14,7 C 23,8 C 61 % 50 % 1019,8 hPa 0,0 l/m 8,2 km/h (2 Bft) S 180 6,7 C 13,0 C 10,9 km/h (2 Bft)
18.09.2019 18:22 14,1 C 14,6 C 23,8 C 61 % 50 % 1019,8 hPa 0,0 l/m 8,2 km/h (2 Bft) S-SO 157 6,7 C 13,0 C 12,8 km/h (3 Bft)
18.09.2019 18:20 14,1 C 14,5 C 23,8 C 61 % 50 % 1019,8 hPa 0,0 l/m 8,2 km/h (2 Bft) S-SO 157 6,7 C 13,0 C 12,8 km/h (3 Bft)
18.09.2019 18:18 14,1 C 14,3 C 23,8 C 61 % 50 % 1019,6 hPa 0,0 l/m 7,0 km/h (2 Bft) S 180 6,7 C 13,7 C 8,2 km/h (2 Bft)
18.09.2019 18:16 14,1 C 14,4 C 23,9 C 60 % 50 % 1019,6 hPa 0,0 l/m 7,2 km/h (2 Bft) SO 135 6,5 C 13,6 C 12,1 km/h (2 Bft)
18.09.2019 18:14 14,2 C 14,5 C 23,9 C 60 % 50 % 1019,6 hPa 0,0 l/m 7,7 km/h (2 Bft) S 180 6,5 C 13,4 C 12,1 km/h (2 Bft)
18.09.2019 18:12 14,3 C 14,4 C 23,9 C 60 % 50 % 1019,6 hPa 0,0 l/m 7,2 km/h (2 Bft) S 180 6,6 C 13,8 C 7,0 km/h (2 Bft)
18.09.2019 18:10 14,3 C 14,4 C 23,9 C 60 % 50 % 1019,6 hPa 0,0 l/m 8,0 km/h (2 Bft) SO 135 6,6 C 13,4 C 6,3 km/h (2 Bft)
18.09.2019 18:08 14,3 C 14,4 C 23,9 C 60 % 50 % 1019,6 hPa 0,0 l/m 8,4 km/h (2 Bft) S-SO 157 6,6 C 13,1 C 14,7 km/h (3 Bft)
18.09.2019 18:06 14,4 C 14,3 C 23,9 C 60 % 50 % 1019,6 hPa 0,0 l/m 8,2 km/h (2 Bft) S-SO 157 6,7 C 13,4 C 14,7 km/h (3 Bft)
18.09.2019 18:04 14,4 C 14,3 C 23,9 C 60 % 49 % 1019,6 hPa 0,0 l/m 8,0 km/h (2 Bft) S 180 6,7 C 13,5 C 12,3 km/h (3 Bft)
18.09.2019 18:02 14,5 C 14,4 C 23,9 C 60 % 49 % 1019,6 hPa 0,0 l/m 7,7 km/h (2 Bft) S-SO 157 6,8 C 13,7 C 10,9 km/h (2 Bft)
18.09.2019 18:00 14,5 C 14,5 C 23,9 C 60 % 49 % 1019,6 hPa 0,0 l/m 7,7 km/h (2 Bft) S-SO 157 6,8 C 13,7 C 12,3 km/h (3 Bft)
18.09.2019 17:58 14,5 C 14,5 C 23,9 C 60 % 49 % 1019,7 hPa 0,0 l/m 7,2 km/h (2 Bft) S 180 6,8 C 14,0 C 12,3 km/h (3 Bft)
18.09.2019 17:56 14,6 C 14,6 C 23,9 C 60 % 49 % 1019,7 hPa 0,0 l/m 7,0 km/h (2 Bft) S 180 6,9 C 14,3 C 11,6 km/h (2 Bft)
18.09.2019 17:54 14,6 C 14,7 C 23,9 C 60 % 49 % 1019,7 hPa 0,0 l/m 7,2 km/h (2 Bft) S 180 6,9 C 14,1 C 11,8 km/h (2 Bft)
18.09.2019 17:52 14,7 C 14,7 C 23,9 C 60 % 49 % 1019,7 hPa 0,0 l/m 7,7 km/h (2 Bft) S-SW 202 7,0 C 14,0 C 11,8 km/h (2 Bft)
18.09.2019 17:50 14,8 C 14,8 C 23,9 C 59 % 49 % 1019,7 hPa 0,0 l/m 7,5 km/h (2 Bft) S-SO 157 6,9 C 14,2 C 7,7 km/h (2 Bft)
18.09.2019 17:48 14,8 C 14,9 C 23,9 C 59 % 49 % 1019,7 hPa 0,0 l/m 7,7 km/h (2 Bft) S-SO 157 6,9 C 14,1 C 12,6 km/h (3 Bft)
18.09.2019 17:46 14,8 C 15,1 C 23,9 C 59 % 49 % 1019,7 hPa 0,0 l/m 9,7 km/h (2 Bft) SO 135 6,9 C 13,0 C 12,6 km/h (3 Bft)
18.09.2019 17:44 14,8 C 15,2 C 23,9 C 59 % 49 % 1019,7 hPa 0,0 l/m 10,9 km/h (2 Bft) SO 135 6,9 C 12,5 C 10,1 km/h (2 Bft)
18.09.2019 17:42 14,9 C 15,4 C 24,0 C 59 % 49 % 1019,7 hPa 0,0 l/m 11,6 km/h (2 Bft) S-SO 157 7,0 C 12,3 C 11,6 km/h (2 Bft)
18.09.2019 17:40 14,9 C 15,4 C 24,0 C 59 % 49 % 1019,7 hPa 0,0 l/m 12,6 km/h (3 Bft) O-SO 112 7,0 C 11,9 C 11,6 km/h (2 Bft)
18.09.2019 17:38 14,9 C 15,3 C 24,0 C 59 % 49 % 1019,8 hPa 0,0 l/m 12,8 km/h (3 Bft) S-SO 157 7,0 C 11,8 C 20,0 km/h (4 Bft)
18.09.2019 17:36 15,0 C 15,3 C 24,0 C 59 % 49 % 1019,8 hPa 0,0 l/m 13,0 km/h (3 Bft) SO 135 7,1 C 11,9 C 20,0 km/h (4 Bft)
18.09.2019 17:34 15,0 C 15,5 C 24,0 C 59 % 49 % 1019,8 hPa 0,0 l/m 12,1 km/h (2 Bft) S 180 7,1 C 12,2 C 21,0 km/h (4 Bft)
18.09.2019 17:32 15,0 C 15,6 C 24,0 C 59 % 49 % 1019,8 hPa 0,0 l/m 11,8 km/h (2 Bft) S 180 7,1 C 12,4 C 21,0 km/h (4 Bft)
18.09.2019 17:30 15,1 C 15,8 C 24,0 C 59 % 49 % 1019,8 hPa 0,0 l/m 11,3 km/h (2 Bft) S-SO 157 7,1 C 12,7 C 17,1 km/h (3 Bft)
18.09.2019 17:28 15,1 C 15,8 C 24,0 C 59 % 49 % 1019,8 hPa 0,0 l/m 10,6 km/h (2 Bft) S 180 7,1 C 13,0 C 16,9 km/h (3 Bft)
18.09.2019 17:26 15,1 C 15,7 C 24,0 C 59 % 49 % 1019,8 hPa 0,0 l/m 11,8 km/h (2 Bft) SW 225 7,1 C 12,5 C 16,9 km/h (3 Bft)
18.09.2019 17:24 15,2 C 15,7 C 24,0 C 59 % 49 % 1019,8 hPa 0,0 l/m 11,8 km/h (2 Bft) S-SO 157 7,2 C 12,6 C 15,0 km/h (3 Bft)
18.09.2019 17:22 15,2 C 15,7 C 24,0 C 59 % 49 % 1019,8 hPa 0,0 l/m 12,3 km/h (3 Bft) S-SO 157 7,2 C 12,4 C 18,1 km/h (3 Bft)
18.09.2019 17:20 15,2 C 15,8 C 24,0 C 59 % 49 % 1019,8 hPa 0,0 l/m 13,0 km/h (3 Bft) SO 135 7,2 C 12,1 C 18,1 km/h (3 Bft)
18.09.2019 17:18 15,2 C 15,6 C 24,0 C 59 % 49 % 1019,8 hPa 0,0 l/m 13,0 km/h (3 Bft) S-SO 157 7,2 C 12,1 C 16,9 km/h (3 Bft)
18.09.2019 17:16 15,2 C 15,7 C 24,0 C 59 % 49 % 1019,8 hPa 0,0 l/m 13,8 km/h (3 Bft) S-SO 157 7,2 C 11,8 C 16,9 km/h (3 Bft)
18.09.2019 17:14 15,2 C 15,7 C 24,0 C 59 % 49 % 1019,8 hPa 0,0 l/m 14,0 km/h (3 Bft) S 180 7,2 C 11,8 C 15,9 km/h (3 Bft)
18.09.2019 17:12 15,2 C 15,6 C 24,0 C 58 % 49 % 1019,8 hPa 0,0 l/m 14,2 km/h (3 Bft) SO 135 7,0 C 11,7 C 15,9 km/h (3 Bft)
18.09.2019 17:10 15,2 C 15,7 C 24,0 C 58 % 49 % 1019,8 hPa 0,0 l/m 13,3 km/h (3 Bft) S-SO 157 7,0 C 12,0 C 16,2 km/h (3 Bft)
18.09.2019 17:08 15,3 C 15,6 C 24,0 C 58 % 49 % 1019,8 hPa 0,0 l/m 13,5 km/h (3 Bft) S 180 7,1 C 12,1 C 18,6 km/h (3 Bft)
18.09.2019 17:06 15,3 C 15,5 C 24,1 C 58 % 49 % 1019,8 hPa 0,0 l/m 13,0 km/h (3 Bft) S 180 7,1 C 12,2 C 18,6 km/h (3 Bft)
18.09.2019 17:04 15,3 C 15,5 C 24,1 C 58 % 49 % 1019,8 hPa 0,0 l/m 12,8 km/h (3 Bft) S-SO 157 7,1 C 12,3 C 17,6 km/h (3 Bft)
18.09.2019 17:02 15,3 C 15,6 C 24,1 C 58 % 49 % 1019,8 hPa 0,0 l/m 12,6 km/h (3 Bft) S-SO 157 7,1 C 12,4 C 17,6 km/h (3 Bft)
18.09.2019 17:00 15,4 C 15,7 C 24,1 C 58 % 49 % 1019,8 hPa 0,0 l/m 13,5 km/h (3 Bft) S-SO 157 7,2 C 12,2 C 13,5 km/h (3 Bft)
18.09.2019 16:58 15,4 C 15,6 C 24,1 C 58 % 49 % 1019,6 hPa 0,0 l/m 14,7 km/h (3 Bft) S 180 7,2 C 11,8 C 18,6 km/h (3 Bft)
18.09.2019 16:56 15,5 C 15,5 C 24,1 C 58 % 49 % 1019,6 hPa 0,0 l/m 15,7 km/h (3 Bft) SO 135 7,3 C 11,6 C 18,6 km/h (3 Bft)
18.09.2019 16:54 15,5 C 15,5 C 24,1 C 58 % 49 % 1019,6 hPa 0,0 l/m 15,4 km/h (3 Bft) S-SO 157 7,3 C 11,7 C 18,6 km/h (3 Bft)
18.09.2019 16:52 15,5 C 15,4 C 24,1 C 58 % 49 % 1019,6 hPa 0,0 l/m 15,4 km/h (3 Bft) S 180 7,3 C 11,7 C 22,0 km/h (4 Bft)
18.09.2019 16:50 15,6 C 15,6 C 24,1 C 58 % 49 % 1019,6 hPa 0,0 l/m 14,2 km/h (3 Bft) S-SO 157 7,4 C 12,2 C 22,0 km/h (4 Bft)
18.09.2019 16:48 15,8 C 15,7 C 24,1 C 58 % 49 % 1019,6 hPa 0,0 l/m 13,0 km/h (3 Bft) S-SO 157 7,6 C 12,8 C 22,0 km/h (4 Bft)
18.09.2019 16:46 15,8 C 15,9 C 24,1 C 58 % 49 % 1019,6 hPa 0,0 l/m 12,3 km/h (3 Bft) S-SO 157 7,6 C 13,1 C 22,0 km/h (4 Bft)
18.09.2019 16:44 15,9 C 16,0 C 24,1 C 58 % 49 % 1019,6 hPa 0,0 l/m 12,3 km/h (3 Bft) S 180 7,6 C 13,2 C 16,2 km/h (3 Bft)
18.09.2019 16:42 15,9 C 16,0 C 24,1 C 58 % 49 % 1019,6 hPa 0,0 l/m 12,8 km/h (3 Bft) S 180 7,6 C 13,0 C 10,4 km/h (2 Bft)
18.09.2019 16:40 15,9 C 16,3 C 24,1 C 58 % 49 % 1019,6 hPa 0,0 l/m 14,2 km/h (3 Bft) S-SO 157 7,6 C 12,5 C 12,3 km/h (3 Bft)
18.09.2019 16:38 16,0 C 16,5 C 24,2 C 56 % 49 % 1019,6 hPa 0,0 l/m 14,7 km/h (3 Bft) SO 135 7,2 C 12,5 C 24,6 km/h (4 Bft)
18.09.2019 16:36 16,0 C 16,8 C 24,2 C 56 % 49 % 1019,6 hPa 0,0 l/m 14,2 km/h (3 Bft) S-SO 157 7,2 C 12,7 C 24,6 km/h (4 Bft)
18.09.2019 16:34 16,0 C 16,8 C 24,2 C 56 % 49 % 1019,6 hPa 0,0 l/m 14,2 km/h (3 Bft) S 180 7,2 C 12,7 C 20,8 km/h (4 Bft)
18.09.2019 16:32 16,0 C 16,7 C 24,2 C 56 % 50 % 1019,6 hPa 0,0 l/m 13,5 km/h (3 Bft) S-SO 157 7,2 C 12,9 C 21,5 km/h (4 Bft)
18.09.2019 16:30 16,0 C 16,5 C 24,2 C 56 % 50 % 1019,6 hPa 0,0 l/m 12,8 km/h (3 Bft) S-SO 157 7,2 C 13,1 C 21,5 km/h (4 Bft)
18.09.2019 16:28 16,0 C 16,5 C 24,2 C 56 % 50 % 1019,6 hPa 0,0 l/m 12,6 km/h (3 Bft) SO 135 7,2 C 13,2 C 16,4 km/h (3 Bft)
18.09.2019 16:26 16,0 C 16,5 C 24,3 C 56 % 50 % 1019,6 hPa 0,0 l/m 12,8 km/h (3 Bft) O-SO 112 7,2 C 13,1 C 19,8 km/h (3 Bft)
18.09.2019 16:24 16,0 C 16,5 C 24,2 C 56 % 50 % 1019,6 hPa 0,0 l/m 13,5 km/h (3 Bft) SO 135 7,2 C 12,9 C 19,8 km/h (3 Bft)
18.09.2019 16:22 16,3 C 16,5 C 24,2 C 56 % 50 % 1019,6 hPa 0,0 l/m 14,5 km/h (3 Bft) S 180 7,5 C 12,9 C 15,9 km/h (3 Bft)
18.09.2019 16:20 16,3 C 16,4 C 24,3 C 56 % 50 % 1019,6 hPa 0,0 l/m 15,0 km/h (3 Bft) SO 135 7,5 C 12,8 C 16,7 km/h (3 Bft)
18.09.2019 16:18 16,3 C 16,5 C 24,3 C 56 % 50 % 1019,6 hPa 0,0 l/m 14,5 km/h (3 Bft) S 180 7,5 C 12,9 C 16,7 km/h (3 Bft)
18.09.2019 16:16 16,4 C 16,6 C 24,3 C 56 % 50 % 1019,6 hPa 0,0 l/m 13,8 km/h (3 Bft) S-SO 157 7,6 C 13,3 C 17,6 km/h (3 Bft)
18.09.2019 16:14 16,5 C 16,6 C 24,3 C 56 % 50 % 1019,6 hPa 0,0 l/m 14,5 km/h (3 Bft) SO 135 7,7 C 13,2 C 17,6 km/h (3 Bft)
18.09.2019 16:12 16,5 C 16,7 C 24,2 C 56 % 50 % 1019,6 hPa 0,0 l/m 14,2 km/h (3 Bft) SO 135 7,7 C 13,3 C 17,6 km/h (3 Bft)
18.09.2019 16:10 16,4 C 16,7 C 24,2 C 56 % 50 % 1019,6 hPa 0,0 l/m 14,5 km/h (3 Bft) S 180 7,6 C 13,0 C 12,8 km/h (3 Bft)
18.09.2019 16:08 16,4 C 16,6 C 24,2 C 56 % 50 % 1019,6 hPa 0,0 l/m 14,5 km/h (3 Bft) S 180 7,6 C 13,0 C 17,6 km/h (3 Bft)
18.09.2019 16:06 16,7 C 16,6 C 24,3 C 56 % 50 % 1019,6 hPa 0,0 l/m 15,2 km/h (3 Bft) S-SO 157 7,9 C 13,2 C 19,1 km/h (3 Bft)
18.09.2019 16:04 16,7 C 16,7 C 24,2 C 56 % 50 % 1019,6 hPa 0,0 l/m 15,0 km/h (3 Bft) S 180 7,9 C 13,3 C 19,1 km/h (3 Bft)
18.09.2019 16:02 16,7 C 16,8 C 24,2 C 56 % 50 % 1019,6 hPa 0,0 l/m 14,0 km/h (3 Bft) O-SO 112 7,9 C 13,6 C 20,5 km/h (4 Bft)
18.09.2019 16:00 16,8 C 16,8 C 24,2 C 56 % 50 % 1019,6 hPa 0,0 l/m 13,0 km/h (3 Bft) S-SW 202 8,0 C 14,0 C 20,5 km/h (4 Bft)
18.09.2019 15:58 16,7 C 16,8 C 24,2 C 56 % 50 % 1019,7 hPa 0,0 l/m 13,0 km/h (3 Bft) W-NW 292 7,9 C 13,9 C 20,5 km/h (4 Bft)
18.09.2019 15:56 16,6 C 16,9 C 24,2 C 56 % 51 % 1019,7 hPa 0,0 l/m 12,8 km/h (3 Bft) S-SO 157 7,8 C 13,8 C 20,5 km/h (4 Bft)
18.09.2019 15:54 16,8 C 16,9 C 24,2 C 56 % 51 % 1019,7 hPa 0,0 l/m 12,1 km/h (2 Bft) S-SO 157 8,0 C 14,3 C 19,1 km/h (3 Bft)
18.09.2019 15:52 17,0 C 17,0 C 24,2 C 56 % 51 % 1019,7 hPa 0,0 l/m 11,1 km/h (2 Bft) SO 135 8,2 C 14,9 C 14,0 km/h (3 Bft)
18.09.2019 15:50 17,1 C 17,0 C 24,1 C 56 % 51 % 1019,7 hPa 0,0 l/m 10,4 km/h (2 Bft) SO 135 8,3 C 15,3 C 14,5 km/h (3 Bft)
18.09.2019 15:48 17,1 C 17,1 C 24,1 C 56 % 51 % 1019,7 hPa 0,0 l/m 11,1 km/h (2 Bft) S-SO 157 8,3 C 15,0 C 16,2 km/h (3 Bft)
18.09.2019 15:46 17,1 C 17,1 C 24,1 C 56 % 51 % 1019,7 hPa 0,0 l/m 10,6 km/h (2 Bft) S-SO 157 8,3 C 15,2 C 16,2 km/h (3 Bft)
18.09.2019 15:44 17,1 C 17,1 C 24,1 C 56 % 51 % 1019,7 hPa 0,0 l/m 12,1 km/h (2 Bft) S-SO 157 8,3 C 14,7 C 14,7 km/h (3 Bft)
18.09.2019 15:42 16,8 C 17,1 C 24,1 C 56 % 51 % 1019,7 hPa 0,0 l/m 12,3 km/h (3 Bft) O-SO 112 8,0 C 14,2 C 14,7 km/h (3 Bft)
18.09.2019 15:40 16,8 C 16,7 C 24,1 C 56 % 51 % 1019,7 hPa 0,0 l/m 12,8 km/h (3 Bft) O-SO 112 8,0 C 14,1 C 14,7 km/h (3 Bft)
18.09.2019 15:38 16,7 C 16,7 C 24,0 C 56 % 51 % 1019,5 hPa 0,0 l/m 13,8 km/h (3 Bft) S-SO 157 7,9 C 13,6 C 15,4 km/h (3 Bft)
18.09.2019 15:36 16,6 C 16,6 C 23,9 C 56 % 51 % 1019,5 hPa 0,0 l/m 14,2 km/h (3 Bft) S 180 7,8 C 13,4 C 20,5 km/h (4 Bft)
18.09.2019 15:34 16,7 C 16,7 C 24,0 C 56 % 51 % 1019,5 hPa 0,0 l/m 13,3 km/h (3 Bft) S 180 7,9 C 13,8 C 20,5 km/h (4 Bft)
18.09.2019 15:32 16,9 C 16,6 C 23,9 C 56 % 51 % 1019,5 hPa 0,0 l/m 13,5 km/h (3 Bft) S 180 8,1 C 14,0 C 14,0 km/h (3 Bft)
18.09.2019 15:30 16,9 C 16,7 C 24,0 C 56 % 51 % 1019,5 hPa 0,0 l/m 12,8 km/h (3 Bft) S-SO 157 8,1 C 14,2 C 17,9 km/h (3 Bft)
18.09.2019 15:28 16,9 C 16,7 C 23,9 C 56 % 51 % 1019,5 hPa 0,0 l/m 12,6 km/h (3 Bft) S 180 8,1 C 14,3 C 17,9 km/h (3 Bft)
18.09.2019 15:26 16,8 C 16,7 C 23,9 C 56 % 51 % 1019,5 hPa 0,0 l/m 12,3 km/h (3 Bft) SO 135 8,0 C 14,2 C 16,2 km/h (3 Bft)
18.09.2019 15:24 16,8 C 16,6 C 23,9 C 56 % 51 % 1019,5 hPa 0,0 l/m 11,6 km/h (2 Bft) SO 135 8,0 C 14,5 C 19,3 km/h (3 Bft)
18.09.2019 15:22 16,9 C 16,5 C 23,9 C 56 % 51 % 1019,5 hPa 0,0 l/m 12,3 km/h (3 Bft) SO 135 8,1 C 14,4 C 19,3 km/h (3 Bft)
18.09.2019 15:20 16,9 C 16,7 C 23,8 C 56 % 51 % 1019,5 hPa 0,0 l/m 12,1 km/h (2 Bft) SO 135 8,1 C 14,4 C 17,6 km/h (3 Bft)
18.09.2019 15:18 16,9 C 16,9 C 23,8 C 56 % 51 % 1019,5 hPa 0,0 l/m 12,1 km/h (2 Bft) SO 135 8,1 C 14,4 C 15,2 km/h (3 Bft)
18.09.2019 15:16 17,0 C 17,0 C 23,7 C 56 % 51 % 1019,5 hPa 0,0 l/m 10,9 km/h (2 Bft) S 180 8,2 C 15,0 C 15,2 km/h (3 Bft)
18.09.2019 15:14 17,1 C 17,2 C 23,7 C 56 % 51 % 1019,5 hPa 0,0 l/m 11,3 km/h (2 Bft) N-NO 22 8,3 C 14,9 C 15,2 km/h (3 Bft)
18.09.2019 15:12 16,9 C 17,3 C 23,7 C 56 % 51 % 1019,5 hPa 0,0 l/m 10,9 km/h (2 Bft) S-SO 157 8,1 C 14,9 C 15,2 km/h (3 Bft)
18.09.2019 15:10 16,9 C 17,4 C 23,7 C 56 % 51 % 1019,5 hPa 0,0 l/m 10,4 km/h (2 Bft) O-SO 112 8,1 C 15,1 C 11,1 km/h (2 Bft)
18.09.2019 15:08 17,0 C 17,4 C 23,7 C 56 % 51 % 1019,5 hPa 0,0 l/m 10,1 km/h (2 Bft) SO 135 8,2 C 15,3 C 11,1 km/h (2 Bft)
18.09.2019 15:06 16,7 C 17,3 C 23,6 C 56 % 51 % 1019,5 hPa 0,0 l/m 11,6 km/h (2 Bft) SO 135 7,9 C 14,4 C 16,2 km/h (3 Bft)
18.09.2019 15:04 16,7 C 17,1 C 23,6 C 56 % 51 % 1019,5 hPa 0,0 l/m 13,0 km/h (3 Bft) S 180 7,9 C 13,9 C 22,2 km/h (4 Bft)
18.09.2019 15:02 16,7 C 17,2 C 23,5 C 56 % 51 % 1019,5 hPa 0,0 l/m 13,3 km/h (3 Bft) SO 135 7,9 C 13,8 C 22,2 km/h (4 Bft)
18.09.2019 15:00 16,7 C 17,1 C 23,5 C 56 % 51 % 1019,5 hPa 0,0 l/m 14,5 km/h (3 Bft) SO 135 7,9 C 13,4 C 9,4 km/h (2 Bft)
18.09.2019 14:58 16,5 C 17,1 C 23,5 C 56 % 51 % 1019,6 hPa 0,0 l/m 14,5 km/h (3 Bft) O-SO 112 7,7 C 13,2 C 21,7 km/h (4 Bft)
18.09.2019 14:56 16,7 C 17,2 C 23,5 C 56 % 51 % 1019,6 hPa 0,0 l/m 15,0 km/h (3 Bft) SO 135 7,9 C 13,3 C 22,0 km/h (4 Bft)
18.09.2019 14:54 16,7 C 17,3 C 23,5 C 56 % 51 % 1019,6 hPa 0,0 l/m 13,5 km/h (3 Bft) SO 135 7,9 C 13,7 C 22,0 km/h (4 Bft)
18.09.2019 14:52 16,9 C 17,9 C 23,5 C 56 % 51 % 1019,6 hPa 0,0 l/m 13,0 km/h (3 Bft) S 180 8,1 C 14,1 C 16,9 km/h (3 Bft)
18.09.2019 14:50 16,7 C 17,8 C 23,5 C 56 % 51 % 1019,6 hPa 0,0 l/m 12,3 km/h (3 Bft) O-NO 67 7,9 C 14,1 C 14,7 km/h (3 Bft)
18.09.2019 14:48 16,5 C 17,6 C 23,4 C 56 % 51 % 1019,6 hPa 0,0 l/m 12,1 km/h (2 Bft) O-SO 112 7,7 C 14,0 C 17,9 km/h (3 Bft)
18.09.2019 14:46 16,5 C 17,9 C 23,3 C 56 % 51 % 1019,6 hPa 0,0 l/m 11,8 km/h (2 Bft) S 180 7,7 C 14,1 C 17,9 km/h (3 Bft)
18.09.2019 14:44 16,5 C 18,0 C 23,4 C 56 % 51 % 1019,6 hPa 0,0 l/m 12,1 km/h (2 Bft) S-SO 157 7,7 C 14,0 C 23,9 km/h (4 Bft)
18.09.2019 14:42 16,6 C 18,3 C 23,3 C 56 % 51 % 1019,6 hPa 0,0 l/m 13,5 km/h (3 Bft) S-SO 157 7,8 C 13,6 C 23,9 km/h (4 Bft)
18.09.2019 14:40 16,8 C 18,9 C 23,3 C 56 % 51 % 1019,6 hPa 0,0 l/m 12,8 km/h (3 Bft) O-SO 112 8,0 C 14,1 C 16,4 km/h (3 Bft)
18.09.2019 14:38 16,9 C 19,6 C 23,3 C 56 % 51 % 1019,6 hPa 0,0 l/m 12,8 km/h (3 Bft) SO 135 8,1 C 14,2 C 16,4 km/h (3 Bft)
18.09.2019 14:36 16,7 C 20,0 C 23,4 C 56 % 51 % 1019,6 hPa 0,0 l/m 13,8 km/h (3 Bft) S 180 7,9 C 13,6 C 19,3 km/h (3 Bft)
18.09.2019 14:34 16,7 C 20,5 C 23,3 C 56 % 51 % 1019,6 hPa 0,0 l/m 14,0 km/h (3 Bft) S-SW 202 7,9 C 13,6 C 20,3 km/h (4 Bft)
18.09.2019 14:32 16,7 C 20,9 C 23,3 C 56 % 51 % 1019,6 hPa 0,0 l/m 14,2 km/h (3 Bft) S-SO 157 7,9 C 13,5 C 20,3 km/h (4 Bft)
18.09.2019 14:30 16,7 C 21,8 C 23,3 C 56 % 51 % 1019,6 hPa 0,0 l/m 15,0 km/h (3 Bft) O-NO 67 7,9 C 13,3 C 19,1 km/h (3 Bft)
18.09.2019 14:28 16,7 C 23,2 C 23,3 C 56 % 51 % 1019,6 hPa 0,0 l/m 15,7 km/h (3 Bft) O-SO 112 7,9 C 13,0 C 21,2 km/h (4 Bft)
18.09.2019 14:26 16,6 C 23,8 C 23,3 C 56 % 51 % 1019,6 hPa 0,0 l/m 15,9 km/h (3 Bft) S-SO 157 7,8 C 12,9 C 21,2 km/h (4 Bft)
18.09.2019 14:24 16,8 C 25,6 C 23,3 C 56 % 51 % 1019,6 hPa 0,0 l/m 15,7 km/h (3 Bft) S-SO 157 8,0 C 13,2 C 14,2 km/h (3 Bft)
18.09.2019 14:22 16,8 C 26,0 C 23,2 C 56 % 51 % 1019,6 hPa 0,0 l/m 15,2 km/h (3 Bft) S-SO 157 8,0 C 13,3 C 20,0 km/h (4 Bft)
18.09.2019 14:20 16,7 C 26,6 C 23,3 C 57 % 51 % 1019,6 hPa 0,0 l/m 14,5 km/h (3 Bft) SO 135 8,1 C 13,4 C 20,0 km/h (4 Bft)
18.09.2019 14:18 16,5 C 25,7 C 23,3 C 56 % 51 % 1019,8 hPa 0,0 l/m 14,7 km/h (3 Bft) SO 135 7,7 C 13,1 C 18,6 km/h (3 Bft)
18.09.2019 14:16 16,3 C 25,3 C 23,3 C 56 % 51 % 1019,8 hPa 0,0 l/m 14,7 km/h (3 Bft) SO 135 7,5 C 12,9 C 23,4 km/h (4 Bft)
18.09.2019 14:14 16,4 C 25,5 C 23,3 C 56 % 51 % 1019,8 hPa 0,0 l/m 15,9 km/h (3 Bft) O-SO 112 7,6 C 12,6 C 23,4 km/h (4 Bft)
18.09.2019 14:12 16,1 C 25,0 C 23,2 C 56 % 51 % 1019,8 hPa 0,0 l/m 16,9 km/h (3 Bft) S-SO 157 7,3 C 12,0 C 16,9 km/h (3 Bft)
18.09.2019 14:10 16,1 C 25,3 C 23,3 C 56 % 51 % 1019,8 hPa 0,0 l/m 16,7 km/h (3 Bft) O-SO 112 7,3 C 12,0 C 19,8 km/h (3 Bft)
18.09.2019 14:08 16,2 C 25,1 C 23,3 C 56 % 51 % 1019,8 hPa 0,0 l/m 16,2 km/h (3 Bft) SO 135 7,4 C 12,3 C 21,7 km/h (4 Bft)
18.09.2019 14:06 16,3 C 27,1 C 23,2 C 56 % 51 % 1019,8 hPa 0,0 l/m 16,4 km/h (3 Bft) S-SO 157 7,5 C 12,4 C 23,2 km/h (4 Bft)
18.09.2019 14:04 16,5 C 27,3 C 23,2 C 56 % 50 % 1019,8 hPa 0,0 l/m 14,7 km/h (3 Bft) O-SO 112 7,7 C 13,1 C 23,2 km/h (4 Bft)
18.09.2019 14:02 16,6 C 27,8 C 23,2 C 56 % 50 % 1019,8 hPa 0,0 l/m 14,2 km/h (3 Bft) S-SO 157 7,8 C 13,4 C 21,7 km/h (4 Bft)
18.09.2019 14:00 16,5 C 27,3 C 23,2 C 56 % 50 % 1019,8 hPa 0,0 l/m 13,8 km/h (3 Bft) S-SO 157 7,7 C 13,4 C 15,7 km/h (3 Bft)
18.09.2019 13:58 16,5 C 27,2 C 23,2 C 56 % 50 % 1019,8 hPa 0,0 l/m 15,0 km/h (3 Bft) S-SO 157 7,7 C 13,0 C 21,2 km/h (4 Bft)
18.09.2019 13:56 16,6 C 27,4 C 23,2 C 57 % 50 % 1019,8 hPa 0,0 l/m 15,7 km/h (3 Bft) SO 135 8,0 C 12,9 C 21,2 km/h (4 Bft)
18.09.2019 13:54 16,5 C 27,2 C 23,2 C 57 % 50 % 1019,8 hPa 0,0 l/m 15,9 km/h (3 Bft) O-SO 112 8,0 C 12,7 C 17,6 km/h (3 Bft)
18.09.2019 13:52 16,5 C 27,2 C 23,1 C 57 % 50 % 1019,8 hPa 0,0 l/m 16,4 km/h (3 Bft) SO 135 8,0 C 12,6 C 17,6 km/h (3 Bft)
18.09.2019 13:50 16,3 C 26,2 C 23,1 C 56 % 50 % 1019,8 hPa 0,0 l/m 14,7 km/h (3 Bft) SO 135 7,5 C 12,9 C 29,5 km/h (5 Bft)
18.09.2019 13:48 16,3 C 26,7 C 23,2 C 56 % 50 % 1019,8 hPa 0,0 l/m 15,2 km/h (3 Bft) S-SO 157 7,5 C 12,7 C 29,5 km/h (5 Bft)
18.09.2019 13:46 16,3 C 26,5 C 23,1 C 56 % 50 % 1019,8 hPa 0,0 l/m 14,5 km/h (3 Bft) S 180 7,5 C 12,9 C 26,3 km/h (4 Bft)
18.09.2019 13:44 16,5 C 27,1 C 23,2 C 57 % 50 % 1019,8 hPa 0,0 l/m 15,0 km/h (3 Bft) SO 135 8,0 C 13,0 C 20,5 km/h (4 Bft)
18.09.2019 13:42 16,1 C 28,5 C 23,2 C 56 % 50 % 1019,8 hPa 0,0 l/m 15,0 km/h (3 Bft) S-SO 157 7,3 C 12,5 C 20,5 km/h (4 Bft)
18.09.2019 13:40 16,1 C 27,5 C 23,2 C 56 % 50 % 1019,8 hPa 0,0 l/m 15,7 km/h (3 Bft) S-SO 157 7,3 C 12,3 C 17,9 km/h (3 Bft)
18.09.2019 13:38 16,2 C 27,6 C 23,2 C 56 % 50 % 1019,9 hPa 0,0 l/m 15,9 km/h (3 Bft) SW 225 7,4 C 12,4 C 27,5 km/h (4 Bft)
18.09.2019 13:36 16,2 C 28,5 C 23,1 C 56 % 50 % 1019,9 hPa 0,0 l/m 16,2 km/h (3 Bft) S-SO 157 7,4 C 12,3 C 27,5 km/h (4 Bft)
18.09.2019 13:34 16,3 C 28,6 C 23,1 C 56 % 50 % 1019,9 hPa 0,0 l/m 15,2 km/h (3 Bft) S-SO 157 7,5 C 12,7 C 22,9 km/h (4 Bft)
18.09.2019 13:32 16,4 C 29,0 C 23,1 C 56 % 50 % 1019,9 hPa 0,0 l/m 15,4 km/h (3 Bft) SO 135 7,6 C 12,8 C 23,9 km/h (4 Bft)
18.09.2019 13:30 16,4 C 30,1 C 23,1 C 57 % 49 % 1019,9 hPa 0,0 l/m 14,7 km/h (3 Bft) SO 135 7,9 C 13,0 C 23,9 km/h (4 Bft)
18.09.2019 13:28 16,4 C 29,4 C 23,1 C 57 % 49 % 1019,9 hPa 0,0 l/m 15,2 km/h (3 Bft) S 180 7,9 C 12,8 C 24,6 km/h (4 Bft)
18.09.2019 13:26 16,3 C 30,2 C 23,1 C 57 % 49 % 1019,9 hPa 0,0 l/m 16,7 km/h (3 Bft) SO 135 7,8 C 12,3 C 24,6 km/h (4 Bft)
18.09.2019 13:24 16,3 C 29,8 C 23,1 C 57 % 49 % 1019,9 hPa 0,0 l/m 15,9 km/h (3 Bft) O-SO 112 7,8 C 12,5 C 17,9 km/h (3 Bft)
18.09.2019 13:22 16,1 C 28,9 C 23,1 C 56 % 49 % 1019,9 hPa 0,0 l/m 16,4 km/h (3 Bft) S-SO 157 7,3 C 12,1 C 17,9 km/h (3 Bft)
18.09.2019 13:20 16,3 C 29,1 C 23,1 C 56 % 49 % 1019,9 hPa 0,0 l/m 16,7 km/h (3 Bft) SO 135 7,5 C 12,3 C 18,6 km/h (3 Bft)
18.09.2019 13:18 16,4 C 30,2 C 23,1 C 56 % 49 % 1019,8 hPa 0,0 l/m 16,2 km/h (3 Bft) SO 135 7,6 C 12,5 C 22,9 km/h (4 Bft)
18.09.2019 13:16 16,6 C 31,5 C 23,1 C 57 % 49 % 1019,8 hPa 0,0 l/m 15,4 km/h (3 Bft) SO 135 8,0 C 13,0 C 22,9 km/h (4 Bft)
18.09.2019 13:14 16,4 C 31,0 C 23,1 C 57 % 49 % 1019,8 hPa 0,0 l/m 16,7 km/h (3 Bft) SO 135 7,9 C 12,4 C 23,4 km/h (4 Bft)
18.09.2019 13:12 16,4 C 31,0 C 23,1 C 57 % 49 % 1019,8 hPa 0,0 l/m 16,2 km/h (3 Bft) O-SO 112 7,9 C 12,5 C 23,4 km/h (4 Bft)
18.09.2019 13:10 16,1 C 30,2 C 23,1 C 56 % 49 % 1019,8 hPa 0,0 l/m 15,4 km/h (3 Bft) O-SO 112 7,3 C 12,4 C 17,4 km/h (3 Bft)
18.09.2019 13:08 16,2 C 30,5 C 23,1 C 57 % 49 % 1019,8 hPa 0,0 l/m 15,2 km/h (3 Bft) O 90 7,7 C 12,6 C 21,0 km/h (4 Bft)
18.09.2019 13:06 15,9 C 29,8 C 23,1 C 57 % 49 % 1019,8 hPa 0,0 l/m 15,9 km/h (3 Bft) O-SO 112 7,4 C 12,0 C 32,6 km/h (5 Bft)
18.09.2019 13:04 15,9 C 29,4 C 23,1 C 58 % 49 % 1019,8 hPa 0,0 l/m 15,0 km/h (3 Bft) SO 135 7,6 C 12,3 C 32,6 km/h (5 Bft)
18.09.2019 13:02 15,9 C 28,8 C 23,0 C 58 % 49 % 1019,8 hPa 0,0 l/m 14,5 km/h (3 Bft) O-SO 112 7,6 C 12,4 C 20,5 km/h (4 Bft)
18.09.2019 13:00 15,9 C 27,5 C 23,1 C 58 % 49 % 1019,8 hPa 0,0 l/m 16,9 km/h (3 Bft) O-NO 67 7,6 C 11,7 C 34,0 km/h (5 Bft)
18.09.2019 12:58 15,9 C 26,8 C 23,0 C 58 % 49 % 1019,8 hPa 0,0 l/m 17,4 km/h (3 Bft) S-SO 157 7,6 C 11,6 C 29,5 km/h (5 Bft)
18.09.2019 12:56 15,9 C 27,2 C 23,1 C 58 % 49 % 1019,8 hPa 0,0 l/m 17,6 km/h (3 Bft) S-SO 157 7,6 C 11,5 C 29,5 km/h (5 Bft)
18.09.2019 12:54 15,6 C 25,4 C 23,0 C 57 % 49 % 1019,8 hPa 0,0 l/m 19,1 km/h (3 Bft) S 180 7,1 C 10,7 C 21,5 km/h (4 Bft)
18.09.2019 12:52 15,7 C 26,3 C 23,0 C 57 % 49 % 1019,8 hPa 0,0 l/m 19,3 km/h (3 Bft) SO 135 7,2 C 10,8 C 26,6 km/h (4 Bft)
18.09.2019 12:50 15,9 C 27,1 C 23,0 C 58 % 49 % 1019,8 hPa 0,0 l/m 18,8 km/h (3 Bft) SO 135 7,6 C 11,2 C 26,6 km/h (4 Bft)
18.09.2019 12:48 15,9 C 27,5 C 23,1 C 58 % 49 % 1019,8 hPa 0,0 l/m 17,1 km/h (3 Bft) S 180 7,6 C 11,7 C 26,3 km/h (4 Bft)
18.09.2019 12:46 15,9 C 27,5 C 23,1 C 58 % 49 % 1019,8 hPa 0,0 l/m 17,4 km/h (3 Bft) S-SO 157 7,6 C 11,6 C 24,6 km/h (4 Bft)
18.09.2019 12:44 16,1 C 28,9 C 23,0 C 58 % 49 % 1019,8 hPa 0,0 l/m 17,1 km/h (3 Bft) S 180 7,8 C 11,9 C 24,6 km/h (4 Bft)
18.09.2019 12:42 16,0 C 28,4 C 23,0 C 58 % 49 % 1019,8 hPa 0,0 l/m 15,7 km/h (3 Bft) S-SO 157 7,7 C 12,2 C 20,5 km/h (4 Bft)
18.09.2019 12:40 16,0 C 28,0 C 23,0 C 58 % 49 % 1019,8 hPa 0,0 l/m 15,4 km/h (3 Bft) SW 225 7,7 C 12,3 C 19,1 km/h (3 Bft)
18.09.2019 12:38 16,0 C 29,0 C 23,0 C 58 % 49 % 1019,8 hPa 0,0 l/m 14,7 km/h (3 Bft) S 180 7,7 C 12,5 C 20,5 km/h (4 Bft)
18.09.2019 12:36 16,0 C 29,5 C 23,1 C 58 % 49 % 1019,8 hPa 0,0 l/m 15,2 km/h (3 Bft) SO 135 7,7 C 12,3 C 25,1 km/h (4 Bft)
18.09.2019 12:34 15,9 C 28,4 C 23,1 C 59 % 49 % 1019,8 hPa 0,0 l/m 15,4 km/h (3 Bft) S-SO 157 7,9 C 12,2 C 25,1 km/h (4 Bft)
18.09.2019 12:32 15,8 C 28,0 C 23,1 C 59 % 49 % 1019,8 hPa 0,0 l/m 17,4 km/h (3 Bft) SO 135 7,8 C 11,5 C 28,5 km/h (4 Bft)
18.09.2019 12:30 16,0 C 29,2 C 23,1 C 58 % 49 % 1019,8 hPa 0,0 l/m 18,6 km/h (3 Bft) SO 135 7,7 C 11,4 C 33,3 km/h (5 Bft)
18.09.2019 12:28 15,9 C 29,7 C 23,1 C 59 % 49 % 1019,8 hPa 0,0 l/m 18,3 km/h (3 Bft) SO 135 7,9 C 11,3 C 25,1 km/h (4 Bft)
18.09.2019 12:26 15,8 C 29,5 C 23,1 C 59 % 49 % 1019,8 hPa 0,0 l/m 19,6 km/h (3 Bft) S-SO 157 7,8 C 10,9 C 25,8 km/h (4 Bft)
18.09.2019 12:24 15,9 C 29,6 C 23,1 C 59 % 49 % 1019,8 hPa 0,0 l/m 18,6 km/h (3 Bft) S-SO 157 7,9 C 11,3 C 25,8 km/h (4 Bft)
18.09.2019 12:22 15,9 C 29,3 C 23,0 C 59 % 49 % 1019,8 hPa 0,0 l/m 16,2 km/h (3 Bft) S-SO 157 7,9 C 11,9 C 30,7 km/h (5 Bft)
18.09.2019 12:20 16,0 C 29,0 C 23,0 C 59 % 50 % 1019,8 hPa 0,0 l/m 15,9 km/h (3 Bft) S-SO 157 8,0 C 12,1 C 30,7 km/h (5 Bft)
18.09.2019 12:18 15,9 C 27,7 C 23,0 C 59 % 49 % 1019,5 hPa 0,0 l/m 14,5 km/h (3 Bft) NW 315 7,9 C 12,4 C 22,4 km/h (4 Bft)
18.09.2019 12:16 16,1 C 29,1 C 23,0 C 59 % 49 % 1019,5 hPa 0,0 l/m 14,0 km/h (3 Bft) S-SO 157 8,1 C 12,8 C 22,4 km/h (4 Bft)
18.09.2019 12:14 15,8 C 28,2 C 23,1 C 59 % 49 % 1019,5 hPa 0,0 l/m 13,8 km/h (3 Bft) S-SO 157 7,8 C 12,6 C 14,0 km/h (3 Bft)
18.09.2019 12:12 15,9 C 29,3 C 23,0 C 59 % 49 % 1019,5 hPa 0,0 l/m 15,0 km/h (3 Bft) SO 135 7,9 C 12,3 C 23,2 km/h (4 Bft)
18.09.2019 12:10 16,2 C 29,3 C 23,0 C 59 % 50 % 1019,5 hPa 0,0 l/m 13,8 km/h (3 Bft) S 180 8,2 C 13,0 C 23,2 km/h (4 Bft)
18.09.2019 12:08 16,2 C 29,3 C 23,0 C 59 % 50 % 1019,5 hPa 0,0 l/m 13,8 km/h (3 Bft) S 180 8,2 C 13,0 C 23,2 km/h (4 Bft)
18.09.2019 12:06 16,2 C 29,3 C 23,0 C 59 % 50 % 1019,5 hPa 0,0 l/m 13,8 km/h (3 Bft) S 180 8,2 C 13,0 C 23,2 km/h (4 Bft)
18.09.2019 12:04 16,2 C 29,3 C 23,0 C 59 % 50 % 1019,5 hPa 0,0 l/m 13,8 km/h (3 Bft) S 180 8,2 C 13,0 C 23,2 km/h (4 Bft)
18.09.2019 12:02 16,2 C 29,3 C 23,0 C 59 % 50 % 1019,5 hPa 0,0 l/m 13,8 km/h (3 Bft) S 180 8,2 C 13,0 C 23,2 km/h (4 Bft)
18.09.2019 12:00 16,1 C 28,9 C 23,0 C 59 % 50 % 1019,5 hPa 0,0 l/m 14,0 km/h (3 Bft) S 180 8,1 C 12,8 C 13,0 km/h (3 Bft)
18.09.2019 11:58 15,8 C 27,6 C 23,0 C 59 % 50 % 1020,0 hPa 0,0 l/m 15,2 km/h (3 Bft) SO 135 7,8 C 12,1 C 17,6 km/h (3 Bft)
18.09.2019 11:56 15,8 C 26,6 C 23,0 C 59 % 50 % 1020,0 hPa 0,0 l/m 16,9 km/h (3 Bft) SO 135 7,8 C 11,6 C 23,4 km/h (4 Bft)
18.09.2019 11:54 15,8 C 26,3 C 23,0 C 59 % 50 % 1020,0 hPa 0,0 l/m 16,4 km/h (3 Bft) O-SO 112 7,8 C 11,7 C 23,4 km/h (4 Bft)
18.09.2019 11:52 15,9 C 27,7 C 23,0 C 59 % 50 % 1020,0 hPa 0,0 l/m 16,7 km/h (3 Bft) SO 135 7,9 C 11,8 C 21,7 km/h (4 Bft)
18.09.2019 11:50 15,9 C 28,3 C 23,0 C 59 % 50 % 1020,0 hPa 0,0 l/m 16,9 km/h (3 Bft) S 180 7,9 C 11,7 C 28,0 km/h (4 Bft)
18.09.2019 11:48 15,8 C 27,2 C 23,0 C 59 % 50 % 1020,0 hPa 0,0 l/m 16,2 km/h (3 Bft) S-SW 202 7,8 C 11,8 C 28,0 km/h (4 Bft)
18.09.2019 11:46 15,7 C 26,7 C 23,0 C 59 % 50 % 1020,0 hPa 0,0 l/m 14,2 km/h (3 Bft) S-SO 157 7,7 C 12,3 C 18,6 km/h (3 Bft)
18.09.2019 11:44 15,5 C 26,7 C 23,1 C 59 % 50 % 1020,0 hPa 0,0 l/m 15,2 km/h (3 Bft) S-SO 157 7,5 C 11,7 C 18,6 km/h (3 Bft)
18.09.2019 11:42 15,7 C 27,2 C 23,1 C 60 % 50 % 1020,0 hPa 0,0 l/m 16,4 km/h (3 Bft) S-SO 157 8,0 C 11,6 C 22,4 km/h (4 Bft)
18.09.2019 11:40 15,6 C 27,2 C 23,0 C 61 % 50 % 1020,0 hPa 0,0 l/m 16,7 km/h (3 Bft) S 180 8,1 C 11,4 C 30,4 km/h (5 Bft)
18.09.2019 11:38 15,5 C 26,3 C 23,1 C 61 % 51 % 1019,8 hPa 0,0 l/m 16,4 km/h (3 Bft) O 90 8,0 C 11,4 C 18,1 km/h (3 Bft)
18.09.2019 11:36 15,6 C 25,3 C 23,0 C 61 % 51 % 1019,8 hPa 0,0 l/m 17,1 km/h (3 Bft) SO 135 8,1 C 11,3 C 30,4 km/h (5 Bft)
18.09.2019 11:34 15,9 C 26,2 C 23,0 C 61 % 51 % 1019,8 hPa 0,0 l/m 17,1 km/h (3 Bft) SO 135 8,4 C 11,7 C 30,4 km/h (5 Bft)
18.09.2019 11:32 15,9 C 27,4 C 23,1 C 61 % 50 % 1019,8 hPa 0,0 l/m 15,7 km/h (3 Bft) SO 135 8,4 C 12,1 C 27,8 km/h (4 Bft)
18.09.2019 11:30 15,9 C 27,0 C 23,0 C 61 % 51 % 1019,8 hPa 0,0 l/m 15,9 km/h (3 Bft) S-SO 157 8,4 C 12,0 C 29,0 km/h (5 Bft)
18.09.2019 11:28 15,9 C 26,7 C 23,1 C 62 % 51 % 1019,8 hPa 0,0 l/m 15,7 km/h (3 Bft) S 180 8,6 C 12,1 C 21,7 km/h (4 Bft)
18.09.2019 11:26 16,0 C 27,0 C 23,0 C 61 % 51 % 1019,8 hPa 0,0 l/m 15,9 km/h (3 Bft) S 180 8,5 C 12,1 C 21,7 km/h (4 Bft)
18.09.2019 11:24 15,9 C 26,3 C 23,0 C 62 % 51 % 1019,8 hPa 0,0 l/m 15,9 km/h (3 Bft) S-SO 157 8,6 C 12,0 C 17,1 km/h (3 Bft)
18.09.2019 11:22 15,9 C 26,3 C 23,1 C 62 % 51 % 1019,8 hPa 0,0 l/m 15,2 km/h (3 Bft) S-SW 202 8,6 C 12,2 C 17,4 km/h (3 Bft)
18.09.2019 11:20 15,9 C 26,5 C 23,0 C 63 % 51 % 1019,8 hPa 0,0 l/m 15,4 km/h (3 Bft) SW 225 8,9 C 12,2 C 17,4 km/h (3 Bft)
18.09.2019 11:18 15,9 C 25,8 C 23,1 C 63 % 51 % 1019,8 hPa 0,0 l/m 15,0 km/h (3 Bft) S-SW 202 8,9 C 12,3 C 20,3 km/h (4 Bft)
18.09.2019 11:16 15,9 C 24,3 C 23,1 C 63 % 51 % 1019,8 hPa 0,0 l/m 15,7 km/h (3 Bft) S-SW 202 8,9 C 12,1 C 22,4 km/h (4 Bft)
18.09.2019 11:14 15,9 C 23,9 C 23,0 C 63 % 51 % 1019,8 hPa 0,0 l/m 14,5 km/h (3 Bft) S-SO 157 8,9 C 12,4 C 22,4 km/h (4 Bft)
18.09.2019 11:12 15,7 C 23,1 C 23,1 C 63 % 51 % 1019,8 hPa 0,0 l/m 13,5 km/h (3 Bft) S-SW 202 8,7 C 12,5 C 27,0 km/h (4 Bft)
18.09.2019 11:10 15,8 C 23,4 C 23,0 C 63 % 52 % 1019,8 hPa 0,0 l/m 13,3 km/h (3 Bft) SO 135 8,8 C 12,7 C 27,0 km/h (4 Bft)
18.09.2019 11:08 15,9 C 23,9 C 23,0 C 64 % 52 % 1019,8 hPa 0,0 l/m 12,3 km/h (3 Bft) SW 225 9,1 C 13,2 C 22,7 km/h (4 Bft)
18.09.2019 11:06 15,9 C 25,0 C 23,0 C 64 % 51 % 1019,8 hPa 0,0 l/m 11,8 km/h (2 Bft) S 180 9,1 C 13,4 C 22,7 km/h (4 Bft)
18.09.2019 11:04 15,9 C 25,7 C 23,0 C 64 % 52 % 1019,8 hPa 0,0 l/m 13,0 km/h (3 Bft) S-SO 157 9,1 C 12,9 C 11,1 km/h (2 Bft)
18.09.2019 11:02 15,9 C 25,8 C 23,0 C 64 % 51 % 1019,8 hPa 0,0 l/m 13,3 km/h (3 Bft) S 180 9,1 C 12,8 C 10,6 km/h (2 Bft)
18.09.2019 11:00 15,5 C 25,0 C 23,0 C 64 % 52 % 1019,8 hPa 0,0 l/m 14,2 km/h (3 Bft) SO 135 8,7 C 12,1 C 18,1 km/h (3 Bft)
18.09.2019 10:58 15,5 C 24,6 C 23,0 C 64 % 52 % 1019,7 hPa 0,0 l/m 14,7 km/h (3 Bft) SO 135 8,7 C 11,9 C 18,1 km/h (3 Bft)
18.09.2019 10:56 15,5 C 25,3 C 23,0 C 64 % 52 % 1019,7 hPa 0,0 l/m 15,2 km/h (3 Bft) SO 135 8,7 C 11,7 C 17,1 km/h (3 Bft)
18.09.2019 10:54 15,5 C 25,4 C 23,0 C 64 % 52 % 1019,7 hPa 0,0 l/m 14,2 km/h (3 Bft) SO 135 8,7 C 12,1 C 17,1 km/h (3 Bft)
18.09.2019 10:52 15,5 C 25,2 C 23,0 C 64 % 52 % 1019,7 hPa 0,0 l/m 14,7 km/h (3 Bft) O-SO 112 8,7 C 11,9 C 20,3 km/h (4 Bft)
18.09.2019 10:50 15,7 C 25,6 C 23,0 C 65 % 52 % 1019,7 hPa 0,0 l/m 15,4 km/h (3 Bft) S 180 9,1 C 11,9 C 20,3 km/h (4 Bft)
18.09.2019 10:48 15,7 C 25,0 C 22,9 C 65 % 52 % 1019,7 hPa 0,0 l/m 15,4 km/h (3 Bft) S 180 9,1 C 11,9 C 16,2 km/h (3 Bft)
18.09.2019 10:46 15,5 C 24,1 C 23,0 C 65 % 52 % 1019,7 hPa 0,0 l/m 15,7 km/h (3 Bft) S 180 8,9 C 11,6 C 16,2 km/h (3 Bft)
18.09.2019 10:44 15,5 C 23,8 C 22,9 C 65 % 52 % 1019,7 hPa 0,0 l/m 16,2 km/h (3 Bft) O-SO 112 8,9 C 11,4 C 17,9 km/h (3 Bft)
18.09.2019 10:42 15,3 C 22,7 C 23,0 C 65 % 52 % 1019,7 hPa 0,0 l/m 15,9 km/h (3 Bft) S 180 8,8 C 11,3 C 27,5 km/h (4 Bft)
18.09.2019 10:40 15,3 C 22,2 C 22,9 C 65 % 52 % 1019,7 hPa 0,0 l/m 15,4 km/h (3 Bft) S 180 8,8 C 11,4 C 27,5 km/h (4 Bft)
18.09.2019 10:38 15,4 C 21,9 C 23,0 C 65 % 52 % 1019,3 hPa 0,0 l/m 15,2 km/h (3 Bft) O-SO 112 8,9 C 11,6 C 20,3 km/h (4 Bft)
18.09.2019 10:36 15,5 C 22,3 C 23,0 C 66 % 52 % 1019,3 hPa 0,0 l/m 15,2 km/h (3 Bft) O-SO 112 9,2 C 11,7 C 21,5 km/h (4 Bft)
18.09.2019 10:34 15,4 C 22,1 C 22,9 C 66 % 52 % 1019,3 hPa 0,0 l/m 16,2 km/h (3 Bft) SO 135 9,1 C 11,3 C 21,5 km/h (4 Bft)
18.09.2019 10:32 15,2 C 21,6 C 22,9 C 66 % 52 % 1019,3 hPa 0,0 l/m 15,9 km/h (3 Bft) SO 135 8,9 C 11,1 C 20,5 km/h (4 Bft)
18.09.2019 10:30 15,2 C 21,5 C 22,9 C 66 % 52 % 1019,3 hPa 0,0 l/m 15,9 km/h (3 Bft) SO 135 8,9 C 11,1 C 23,4 km/h (4 Bft)
18.09.2019 10:28 15,2 C 21,1 C 22,9 C 66 % 52 % 1019,3 hPa 0,0 l/m 15,9 km/h (3 Bft) SO 135 8,9 C 11,1 C 23,4 km/h (4 Bft)
18.09.2019 10:26 15,1 C 20,7 C 22,9 C 67 % 52 % 1019,3 hPa 0,0 l/m 16,4 km/h (3 Bft) S 180 9,0 C 10,9 C 25,6 km/h (4 Bft)
18.09.2019 10:24 15,1 C 20,1 C 22,9 C 67 % 52 % 1019,3 hPa 0,0 l/m 16,2 km/h (3 Bft) S 180 9,0 C 10,9 C 25,6 km/h (4 Bft)
18.09.2019 10:22 15,0 C 19,4 C 22,9 C 67 % 52 % 1019,3 hPa 0,0 l/m 16,9 km/h (3 Bft) S-SO 157 8,9 C 10,6 C 14,7 km/h (3 Bft)
18.09.2019 10:20 14,9 C 18,3 C 22,9 C 67 % 52 % 1019,3 hPa 0,0 l/m 17,9 km/h (3 Bft) S 180 8,8 C 10,2 C 28,0 km/h (4 Bft)
18.09.2019 10:18 14,8 C 18,1 C 22,9 C 67 % 52 % 1019,9 hPa 0,0 l/m 18,3 km/h (3 Bft) SO 135 8,7 C 9,9 C 25,3 km/h (4 Bft)
18.09.2019 10:16 14,9 C 17,8 C 22,9 C 67 % 52 % 1019,9 hPa 0,0 l/m 17,9 km/h (3 Bft) S-SO 157 8,8 C 10,2 C 25,3 km/h (4 Bft)
18.09.2019 10:14 14,9 C 17,9 C 22,9 C 67 % 52 % 1019,9 hPa 0,0 l/m 16,9 km/h (3 Bft) SO 135 8,8 C 10,5 C 21,0 km/h (4 Bft)
18.09.2019 10:12 15,1 C 18,1 C 22,9 C 68 % 52 % 1019,9 hPa 0,0 l/m 16,4 km/h (3 Bft) SO 135 9,2 C 10,9 C 21,0 km/h (4 Bft)
18.09.2019 10:10 15,2 C 18,0 C 22,9 C 68 % 52 % 1019,9 hPa 0,0 l/m 15,7 km/h (3 Bft) S-SO 157 9,3 C 11,2 C 20,8 km/h (4 Bft)
18.09.2019 10:08 15,5 C 18,7 C 22,9 C 69 % 52 % 1019,9 hPa 0,0 l/m 15,7 km/h (3 Bft) S-SO 157 9,8 C 11,6 C 20,8 km/h (4 Bft)
18.09.2019 10:06 15,3 C 17,5 C 23,0 C 69 % 53 % 1019,9 hPa 0,0 l/m 15,4 km/h (3 Bft) S 180 9,6 C 11,4 C 17,9 km/h (3 Bft)
18.09.2019 10:04 15,2 C 17,1 C 22,9 C 69 % 53 % 1019,9 hPa 0,0 l/m 15,7 km/h (3 Bft) SO 135 9,6 C 11,2 C 17,9 km/h (3 Bft)
18.09.2019 10:02 15,2 C 17,0 C 23,0 C 69 % 53 % 1019,9 hPa 0,0 l/m 15,9 km/h (3 Bft) SO 135 9,6 C 11,1 C 22,2 km/h (4 Bft)
18.09.2019 10:00 15,2 C 17,1 C 23,0 C 70 % 53 % 1019,9 hPa 0,0 l/m 15,7 km/h (3 Bft) S-SO 157 9,8 C 11,2 C 25,8 km/h (4 Bft)
18.09.2019 09:58 15,2 C 16,9 C 23,0 C 70 % 53 % 1019,4 hPa 0,0 l/m 15,2 km/h (3 Bft) S-SO 157 9,8 C 11,4 C 19,6 km/h (3 Bft)
18.09.2019 09:56 15,4 C 16,9 C 23,0 C 70 % 53 % 1019,4 hPa 0,0 l/m 13,8 km/h (3 Bft) S-SO 157 10,0 C 12,1 C 16,7 km/h (3 Bft)
18.09.2019 09:54 15,2 C 16,5 C 23,0 C 71 % 53 % 1019,4 hPa 0,0 l/m 13,5 km/h (3 Bft) S 180 10,0 C 11,9 C 20,5 km/h (4 Bft)
18.09.2019 09:52 15,5 C 16,9 C 23,0 C 72 % 53 % 1019,4 hPa 0,0 l/m 12,3 km/h (3 Bft) S-SO 157 10,5 C 12,7 C 20,5 km/h (4 Bft)
18.09.2019 09:50 15,4 C 16,8 C 23,0 C 72 % 53 % 1019,4 hPa 0,0 l/m 12,1 km/h (2 Bft) S 180 10,4 C 12,7 C 17,9 km/h (3 Bft)
18.09.2019 09:48 15,4 C 16,8 C 23,0 C 73 % 53 % 1019,4 hPa 0,0 l/m 11,6 km/h (2 Bft) S 180 10,6 C 12,9 C 15,4 km/h (3 Bft)
18.09.2019 09:46 15,4 C 16,8 C 23,0 C 73 % 53 % 1019,4 hPa 0,0 l/m 12,3 km/h (3 Bft) SO 135 10,6 C 12,6 C 16,2 km/h (3 Bft)
18.09.2019 09:44 15,3 C 16,8 C 23,0 C 73 % 53 % 1019,4 hPa 0,0 l/m 13,5 km/h (3 Bft) SO 135 10,5 C 12,1 C 16,2 km/h (3 Bft)
18.09.2019 09:42 15,0 C 16,3 C 23,0 C 73 % 53 % 1019,4 hPa 0,0 l/m 14,5 km/h (3 Bft) S-SO 157 10,2 C 11,4 C 19,6 km/h (3 Bft)
18.09.2019 09:40 14,9 C 15,6 C 23,1 C 73 % 53 % 1019,4 hPa 0,0 l/m 14,5 km/h (3 Bft) O-SO 112 10,1 C 11,2 C 25,3 km/h (4 Bft)
18.09.2019 09:38 14,8 C 15,6 C 23,1 C 73 % 54 % 1018,6 hPa 0,0 l/m 14,0 km/h (3 Bft) SO 135 10,0 C 11,3 C 24,6 km/h (4 Bft)
18.09.2019 09:36 14,7 C 15,7 C 23,1 C 73 % 54 % 1018,6 hPa 0,0 l/m 13,8 km/h (3 Bft) S-SO 157 9,9 C 11,2 C 25,3 km/h (4 Bft)
18.09.2019 09:34 14,9 C 16,2 C 23,1 C 74 % 54 % 1018,6 hPa 0,0 l/m 13,3 km/h (3 Bft) S-SO 157 10,3 C 11,7 C 25,3 km/h (4 Bft)
18.09.2019 09:32 14,7 C 16,1 C 23,1 C 75 % 54 % 1018,6 hPa 0,0 l/m 12,6 km/h (3 Bft) S-SO 157 10,3 C 11,7 C 17,6 km/h (3 Bft)
18.09.2019 09:30 14,5 C 15,9 C 23,1 C 75 % 54 % 1018,6 hPa 0,0 l/m 13,3 km/h (3 Bft) S-SO 157 10,1 C 11,2 C 25,1 km/h (4 Bft)
18.09.2019 09:28 14,4 C 15,2 C 23,1 C 75 % 54 % 1018,6 hPa 0,0 l/m 13,3 km/h (3 Bft) S-SO 157 10,0 C 11,1 C 16,2 km/h (3 Bft)
18.09.2019 09:26 14,3 C 15,3 C 23,1 C 75 % 54 % 1018,6 hPa 0,0 l/m 13,8 km/h (3 Bft) SO 135 9,9 C 10,8 C 16,2 km/h (3 Bft)
18.09.2019 09:24 14,2 C 15,1 C 23,2 C 75 % 54 % 1018,6 hPa 0,0 l/m 13,5 km/h (3 Bft) SO 135 9,8 C 10,8 C 16,2 km/h (3 Bft)
18.09.2019 09:22 14,3 C 15,6 C 23,3 C 75 % 54 % 1018,6 hPa 0,0 l/m 13,5 km/h (3 Bft) S-SO 157 9,9 C 10,9 C 25,1 km/h (4 Bft)
18.09.2019 09:20 14,3 C 15,5 C 23,2 C 76 % 54 % 1018,6 hPa 0,0 l/m 12,8 km/h (3 Bft) SO 135 10,1 C 11,1 C 25,1 km/h (4 Bft)
18.09.2019 09:18 14,2 C 15,5 C 23,3 C 76 % 55 % 1018,1 hPa 0,0 l/m 12,3 km/h (3 Bft) SO 135 10,0 C 11,2 C 20,8 km/h (4 Bft)
18.09.2019 09:16 14,4 C 15,9 C 23,3 C 77 % 55 % 1018,1 hPa 0,0 l/m 11,8 km/h (2 Bft) S 180 10,4 C 11,7 C 20,5 km/h (4 Bft)
18.09.2019 09:14 14,4 C 16,1 C 23,3 C 77 % 55 % 1018,1 hPa 0,0 l/m 10,4 km/h (2 Bft) SO 135 10,4 C 12,3 C 15,7 km/h (3 Bft)
18.09.2019 09:12 14,3 C 16,2 C 23,4 C 78 % 55 % 1018,1 hPa 0,0 l/m 10,1 km/h (2 Bft) S-SO 157 10,5 C 12,3 C 15,7 km/h (3 Bft)
18.09.2019 09:10 14,3 C 16,5 C 23,4 C 78 % 55 % 1018,1 hPa 0,0 l/m 9,7 km/h (2 Bft) S-SO 157 10,5 C 12,5 C 13,8 km/h (3 Bft)
18.09.2019 09:08 14,3 C 16,3 C 23,4 C 78 % 55 % 1018,1 hPa 0,0 l/m 9,9 km/h (2 Bft) O-SO 112 10,5 C 12,4 C 13,8 km/h (3 Bft)
18.09.2019 09:06 14,4 C 16,0 C 23,4 C 78 % 55 % 1018,1 hPa 0,0 l/m 8,9 km/h (2 Bft) O-SO 112 10,6 C 13,0 C 10,6 km/h (2 Bft)
18.09.2019 09:04 14,4 C 15,8 C 23,5 C 78 % 55 % 1018,1 hPa 0,0 l/m 9,2 km/h (2 Bft) SO 135 10,6 C 12,8 C 14,2 km/h (3 Bft)
18.09.2019 09:02 14,4 C 15,9 C 23,5 C 78 % 56 % 1018,1 hPa 0,0 l/m 9,7 km/h (2 Bft) SO 135 10,6 C 12,6 C 14,2 km/h (3 Bft)
18.09.2019 09:00 14,4 C 16,1 C 23,5 C 78 % 56 % 1018,1 hPa 0,0 l/m 9,9 km/h (2 Bft) SO 135 10,6 C 12,5 C 14,0 km/h (3 Bft)
18.09.2019 08:58 14,4 C 16,2 C 23,5 C 78 % 56 % 1017,6 hPa 0,0 l/m 10,1 km/h (2 Bft) S 180 10,6 C 12,4 C 14,0 km/h (3 Bft)
18.09.2019 08:56 14,3 C 15,7 C 23,5 C 79 % 56 % 1017,6 hPa 0,0 l/m 10,9 km/h (2 Bft) SO 135 10,7 C 11,9 C 14,5 km/h (3 Bft)
18.09.2019 08:54 14,3 C 15,3 C 23,5 C 79 % 56 % 1017,6 hPa 0,0 l/m 10,9 km/h (2 Bft) S-SO 157 10,7 C 11,9 C 14,5 km/h (3 Bft)
18.09.2019 08:52 14,3 C 15,4 C 23,5 C 79 % 56 % 1017,6 hPa 0,0 l/m 10,9 km/h (2 Bft) S 180 10,7 C 11,9 C 16,2 km/h (3 Bft)
18.09.2019 08:50 14,3 C 15,4 C 23,6 C 79 % 56 % 1017,6 hPa 0,0 l/m 11,3 km/h (2 Bft) S-SO 157 10,7 C 11,8 C 16,2 km/h (3 Bft)
18.09.2019 08:48 14,4 C 15,8 C 23,5 C 79 % 56 % 1017,6 hPa 0,0 l/m 10,9 km/h (2 Bft) S-SO 157 10,8 C 12,0 C 20,8 km/h (4 Bft)
18.09.2019 08:46 14,5 C 16,2 C 23,6 C 79 % 56 % 1017,6 hPa 0,0 l/m 11,6 km/h (2 Bft) S-SO 157 10,9 C 11,9 C 20,8 km/h (4 Bft)
18.09.2019 08:44 14,5 C 16,0 C 23,7 C 79 % 56 % 1017,6 hPa 0,0 l/m 12,1 km/h (2 Bft) S-SO 157 10,9 C 11,7 C 15,7 km/h (3 Bft)
18.09.2019 08:42 14,5 C 15,7 C 23,7 C 79 % 56 % 1017,6 hPa 0,0 l/m 13,8 km/h (3 Bft) S 180 10,9 C 11,0 C 15,7 km/h (3 Bft)
18.09.2019 08:40 14,5 C 15,4 C 23,7 C 79 % 56 % 1017,6 hPa 0,0 l/m 15,0 km/h (3 Bft) S-SW 202 10,9 C 10,6 C 13,3 km/h (3 Bft)
18.09.2019 08:38 14,5 C 15,4 C 23,7 C 79 % 56 % 1017,4 hPa 0,0 l/m 15,4 km/h (3 Bft) S 180 10,9 C 10,5 C 13,8 km/h (3 Bft)
18.09.2019 08:36 14,5 C 15,3 C 23,7 C 80 % 57 % 1017,4 hPa 0,0 l/m 16,4 km/h (3 Bft) S 180 11,1 C 10,1 C 18,1 km/h (3 Bft)
18.09.2019 08:34 14,5 C 15,3 C 23,8 C 80 % 57 % 1017,4 hPa 0,0 l/m 14,5 km/h (3 Bft) SO 135 11,1 C 10,8 C 18,1 km/h (3 Bft)
18.09.2019 08:32 14,6 C 15,5 C 23,9 C 80 % 57 % 1017,4 hPa 0,0 l/m 13,3 km/h (3 Bft) S-SO 157 11,2 C 11,3 C 22,4 km/h (4 Bft)
18.09.2019 08:30 14,7 C 15,5 C 23,9 C 81 % 57 % 1017,4 hPa 0,0 l/m 12,1 km/h (2 Bft) S 180 11,5 C 11,9 C 23,9 km/h (4 Bft)
18.09.2019 08:28 14,7 C 15,7 C 23,9 C 81 % 57 % 1017,4 hPa 0,0 l/m 9,7 km/h (2 Bft) S 180 11,5 C 12,9 C 19,1 km/h (3 Bft)
18.09.2019 08:26 14,9 C 15,7 C 23,9 C 81 % 58 % 1017,4 hPa 0,0 l/m 8,0 km/h (2 Bft) S-SO 157 11,7 C 14,0 C 14,7 km/h (3 Bft)
18.09.2019 08:24 15,0 C 16,2 C 23,9 C 81 % 58 % 1017,4 hPa 0,0 l/m 8,0 km/h (2 Bft) S 180 11,8 C 14,1 C 14,2 km/h (3 Bft)
18.09.2019 08:22 15,0 C 16,3 C 24,0 C 81 % 58 % 1017,4 hPa 0,0 l/m 8,7 km/h (2 Bft) S-SO 157 11,8 C 13,7 C 9,4 km/h (2 Bft)
18.09.2019 08:20 15,0 C 16,3 C 24,0 C 81 % 58 % 1017,4 hPa 0,0 l/m 9,2 km/h (2 Bft) SO 135 11,8 C 13,5 C 20,5 km/h (4 Bft)
18.09.2019 08:18 15,2 C 16,4 C 24,0 C 82 % 58 % 1016,9 hPa 0,0 l/m 9,2 km/h (2 Bft) S 180 12,1 C 13,7 C 8,0 km/h (2 Bft)
18.09.2019 08:16 15,2 C 16,3 C 24,0 C 82 % 59 % 1016,9 hPa 0,0 l/m 9,9 km/h (2 Bft) S-SO 157 12,1 C 13,4 C 11,3 km/h (2 Bft)
18.09.2019 08:14 15,2 C 16,4 C 24,0 C 82 % 59 % 1016,9 hPa 0,0 l/m 10,1 km/h (2 Bft) S 180 12,1 C 13,3 C 11,3 km/h (2 Bft)
18.09.2019 08:12 15,2 C 16,6 C 24,1 C 82 % 59 % 1016,9 hPa 0,0 l/m 9,7 km/h (2 Bft) S-SO 157 12,1 C 13,5 C 10,9 km/h (2 Bft)
18.09.2019 08:10 15,2 C 16,7 C 24,1 C 83 % 59 % 1016,9 hPa 0,0 l/m 8,4 km/h (2 Bft) SO 135 12,3 C 14,1 C 16,9 km/h (3 Bft)
18.09.2019 08:08 15,3 C 16,7 C 24,1 C 83 % 59 % 1016,9 hPa 0,0 l/m 8,2 km/h (2 Bft) SO 135 12,4 C 14,3 C 16,9 km/h (3 Bft)
18.09.2019 08:06 15,3 C 17,1 C 24,1 C 83 % 59 % 1016,9 hPa 0,0 l/m 8,0 km/h (2 Bft) SO 135 12,4 C 14,4 C 13,8 km/h (3 Bft)
18.09.2019 08:04 15,4 C 17,1 C 24,1 C 83 % 59 % 1016,9 hPa 0,0 l/m 7,0 km/h (2 Bft) S 180 12,5 C 15,1 C 13,8 km/h (3 Bft)
18.09.2019 08:02 15,4 C 17,2 C 24,0 C 83 % 59 % 1016,9 hPa 0,0 l/m 6,0 km/h (2 Bft) S 180 12,5 C 15,4 C 9,2 km/h (2 Bft)
18.09.2019 08:00 15,4 C 17,0 C 24,0 C 83 % 59 % 1016,9 hPa 0,0 l/m 5,3 km/h (1 Bft) SO 135 12,5 C 15,4 C 8,0 km/h (2 Bft)
18.09.2019 07:58 15,4 C 16,9 C 24,0 C 83 % 60 % 1016,8 hPa 0,0 l/m 5,3 km/h (1 Bft) SO 135 12,5 C 15,4 C 8,9 km/h (2 Bft)
18.09.2019 07:56 15,4 C 17,0 C 23,9 C 83 % 60 % 1016,8 hPa 0,0 l/m 4,6 km/h (1 Bft) S-SO 157 12,5 C 15,4 C 8,9 km/h (2 Bft)
18.09.2019 07:54 15,4 C 17,0 C 23,9 C 83 % 59 % 1016,8 hPa 0,0 l/m 4,1 km/h (1 Bft) S-SO 157 12,5 C 15,4 C 11,3 km/h (2 Bft)
18.09.2019 07:52 15,3 C 17,3 C 23,9 C 83 % 59 % 1016,8 hPa 0,0 l/m 3,4 km/h (1 Bft) S 180 12,4 C 15,3 C 11,3 km/h (2 Bft)
18.09.2019 07:50 15,3 C 17,3 C 23,9 C 83 % 59 % 1016,8 hPa 0,0 l/m 2,7 km/h (1 Bft) SO 135 12,4 C 15,3 C 7,7 km/h (2 Bft)
18.09.2019 07:48 15,2 C 17,0 C 23,9 C 83 % 59 % 1016,8 hPa 0,0 l/m 2,2 km/h (1 Bft) S 180 12,3 C 15,2 C 7,7 km/h (2 Bft)
18.09.2019 07:46 15,1 C 16,6 C 23,9 C 83 % 59 % 1016,8 hPa 0,0 l/m 1,4 km/h (1 Bft) S-SO 157 12,2 C 15,1 C 6,0 km/h (2 Bft)
18.09.2019 07:44 14,9 C 16,6 C 23,9 C 83 % 59 % 1016,8 hPa 0,0 l/m 1,0 km/h (0 Bft) SO 135 12,0 C 14,9 C 6,0 km/h (2 Bft)
18.09.2019 07:42 14,6 C 16,5 C 23,9 C 83 % 59 % 1016,8 hPa 0,0 l/m 0,2 km/h (0 Bft) SO 135 11,7 C 14,6 C 3,4 km/h (1 Bft)
18.09.2019 07:37 14,3 C 15,9 C 23,9 C 83 % 59 % 1016,0 hPa 0,0 l/m 0,5 km/h (0 Bft) S 180 11,5 C 14,3 C 0,0 km/h (0 Bft)
18.09.2019 07:32 14,1 C 15,7 C 23,9 C 83 % 59 % 1016,0 hPa 0,0 l/m 0,5 km/h (0 Bft) SW 225 11,3 C 14,1 C 0,0 km/h (0 Bft)
18.09.2019 07:27 14,1 C 15,6 C 23,9 C 83 % 59 % 1016,0 hPa 0,0 l/m 0,5 km/h (0 Bft) NW 315 11,3 C 14,1 C 3,4 km/h (1 Bft)
18.09.2019 07:22 13,9 C 15,2 C 23,9 C 83 % 59 % 1016,0 hPa 0,0 l/m 2,4 km/h (1 Bft) W 270 11,1 C 13,9 C 2,9 km/h (1 Bft)
18.09.2019 07:17 13,9 C 15,0 C 24,0 C 83 % 59 % 1016,1 hPa 0,0 l/m 2,7 km/h (1 Bft) O-NO 67 11,1 C 13,9 C 3,4 km/h (1 Bft)
18.09.2019 07:12 13,8 C 14,8 C 23,9 C 83 % 59 % 1016,1 hPa 0,0 l/m 1,0 km/h (0 Bft) O-SO 112 11,0 C 13,8 C 5,8 km/h (2 Bft)
18.09.2019 07:07 13,8 C 15,0 C 24,0 C 83 % 60 % 1016,1 hPa 0,0 l/m 1,9 km/h (1 Bft) S 180 11,0 C 13,8 C 0,0 km/h (0 Bft)
18.09.2019 07:02 13,9 C 15,2 C 24,0 C 83 % 60 % 1016,1 hPa 0,0 l/m 4,8 km/h (1 Bft) O-NO 67 11,1 C 13,9 C 0,0 km/h (0 Bft)
18.09.2019 06:57 13,9 C 15,4 C 24,0 C 83 % 60 % 1015,8 hPa 0,0 l/m 5,1 km/h (1 Bft) NO 45 11,1 C 13,9 C 6,8 km/h (2 Bft)
18.09.2019 06:52 13,9 C 14,8 C 24,1 C 83 % 60 % 1015,8 hPa 0,0 l/m 2,9 km/h (1 Bft) NO 45 11,1 C 13,9 C 7,0 km/h (2 Bft)
18.09.2019 06:47 13,8 C 14,8 C 24,1 C 83 % 60 % 1015,8 hPa 0,0 l/m 2,4 km/h (1 Bft) N-NO 22 11,0 C 13,8 C 2,4 km/h (1 Bft)
18.09.2019 06:42 13,7 C 15,2 C 24,1 C 83 % 61 % 1015,8 hPa 0,0 l/m 5,6 km/h (1 Bft) N-NO 22 10,9 C 13,7 C 4,1 km/h (1 Bft)
18.09.2019 06:37 13,7 C 15,3 C 24,1 C 83 % 61 % 1015,6 hPa 0,0 l/m 5,8 km/h (2 Bft) O-NO 67 10,9 C 13,7 C 3,1 km/h (1 Bft)
18.09.2019 06:32 14,0 C 15,0 C 24,1 C 82 % 61 % 1015,6 hPa 0,0 l/m 2,7 km/h (1 Bft) NO 45 11,0 C 14,0 C 10,9 km/h (2 Bft)
18.09.2019 06:27 14,1 C 14,6 C 24,1 C 82 % 61 % 1015,6 hPa 0,0 l/m 0,5 km/h (0 Bft) N-NO 22 11,1 C 14,1 C 0,0 km/h (0 Bft)
18.09.2019 06:22 14,3 C 14,4 C 24,1 C 82 % 61 % 1015,6 hPa 0,0 l/m 0,5 km/h (0 Bft) N-NO 22 11,3 C 14,3 C 0,0 km/h (0 Bft)
18.09.2019 06:17 14,3 C 14,8 C 24,1 C 82 % 61 % 1015,2 hPa 0,0 l/m 0,7 km/h (0 Bft) NW 315 11,3 C 14,3 C 3,1 km/h (1 Bft)
18.09.2019 06:12 14,4 C 15,1 C 24,1 C 82 % 62 % 1015,2 hPa 0,0 l/m 1,2 km/h (1 Bft) O-NO 67 11,4 C 14,4 C 0,0 km/h (0 Bft)
18.09.2019 06:07 14,8 C 15,1 C 24,1 C 82 % 62 % 1015,2 hPa 0,0 l/m 2,9 km/h (1 Bft) N-NO 22 11,8 C 14,8 C 0,0 km/h (0 Bft)
18.09.2019 06:02 14,8 C 15,1 C 24,1 C 82 % 62 % 1015,2 hPa 0,0 l/m 2,9 km/h (1 Bft) N-NO 22 11,8 C 14,8 C 0,0 km/h (0 Bft)
18.09.2019 05:57 14,8 C 15,3 C 24,1 C 82 % 62 % 1015,1 hPa 0,0 l/m 4,8 km/h (1 Bft) NO 45 11,8 C 14,8 C 2,4 km/h (1 Bft)
18.09.2019 05:52 14,8 C 15,9 C 24,1 C 82 % 62 % 1015,1 hPa 0,0 l/m 6,0 km/h (2 Bft) O-NO 67 11,8 C 14,8 C 6,3 km/h (2 Bft)
18.09.2019 05:47 14,8 C 16,0 C 24,1 C 82 % 62 % 1015,1 hPa 0,0 l/m 7,2 km/h (2 Bft) NO 45 11,8 C 14,3 C 7,5 km/h (2 Bft)
18.09.2019 05:42 14,8 C 16,1 C 24,1 C 82 % 62 % 1015,1 hPa 0,0 l/m 8,4 km/h (2 Bft) O-NO 67 11,8 C 13,7 C 7,2 km/h (2 Bft)
18.09.2019 05:37 14,8 C 16,0 C 24,1 C 82 % 62 % 1014,8 hPa 0,0 l/m 7,7 km/h (2 Bft) NO 45 11,8 C 14,1 C 10,1 km/h (2 Bft)
18.09.2019 05:32 14,8 C 16,0 C 24,1 C 82 % 62 % 1014,8 hPa 0,0 l/m 3,9 km/h (1 Bft) NO 45 11,8 C 14,8 C 8,9 km/h (2 Bft)
18.09.2019 05:27 15,4 C 15,6 C 24,1 C 82 % 62 % 1014,8 hPa 0,0 l/m 2,2 km/h (1 Bft) NO 45 12,3 C 15,4 C 6,3 km/h (2 Bft)
18.09.2019 05:22 15,9 C 16,1 C 24,1 C 82 % 62 % 1014,8 hPa 0,0 l/m 1,9 km/h (1 Bft) O-NO 67 12,8 C 15,9 C 0,0 km/h (0 Bft)
18.09.2019 05:17 16,0 C 16,1 C 24,1 C 81 % 62 % 1014,4 hPa 0,0 l/m 1,4 km/h (1 Bft) O-SO 112 12,7 C 16,0 C 4,3 km/h (1 Bft)
18.09.2019 05:12 16,0 C 16,2 C 24,2 C 81 % 62 % 1014,4 hPa 0,0 l/m 0,5 km/h (0 Bft) NO 45 12,7 C 16,0 C 0,0 km/h (0 Bft)
18.09.2019 05:07 16,1 C 16,5 C 24,1 C 81 % 62 % 1014,4 hPa 0,0 l/m 1,7 km/h (1 Bft) O 90 12,8 C 16,1 C 0,0 km/h (0 Bft)
18.09.2019 05:02 16,4 C 16,7 C 24,2 C 82 % 62 % 1014,4 hPa 0,0 l/m 6,0 km/h (2 Bft) NW 315 13,3 C 16,4 C 2,9 km/h (1 Bft)
18.09.2019 04:57 16,4 C 16,7 C 24,2 C 82 % 62 % 1014,6 hPa 0,0 l/m 8,0 km/h (2 Bft) N-NW 337 13,3 C 15,6 C 7,5 km/h (2 Bft)
18.09.2019 04:52 16,5 C 16,6 C 24,2 C 82 % 62 % 1014,6 hPa 0,0 l/m 8,2 km/h (2 Bft) S 180 13,4 C 15,6 C 9,7 km/h (2 Bft)
18.09.2019 04:47 16,4 C 16,7 C 24,2 C 82 % 62 % 1014,6 hPa 0,0 l/m 8,0 km/h (2 Bft) S-SO 157 13,3 C 15,6 C 7,7 km/h (2 Bft)
18.09.2019 04:42 15,9 C 17,0 C 24,2 C 84 % 62 % 1014,6 hPa 0,0 l/m 6,3 km/h (2 Bft) SO 135 13,2 C 15,9 C 8,9 km/h (2 Bft)
18.09.2019 04:37 15,9 C 17,2 C 24,2 C 84 % 62 % 1014,1 hPa 0,0 l/m 3,9 km/h (1 Bft) SO 135 13,2 C 15,9 C 8,9 km/h (2 Bft)
18.09.2019 04:32 15,9 C 17,5 C 24,2 C 84 % 62 % 1014,1 hPa 0,0 l/m 4,3 km/h (1 Bft) O-NO 67 13,2 C 15,9 C 3,6 km/h (1 Bft)
18.09.2019 04:27 15,9 C 17,4 C 24,2 C 84 % 62 % 1014,1 hPa 0,0 l/m 6,0 km/h (2 Bft) O 90 13,2 C 15,9 C 3,4 km/h (1 Bft)
18.09.2019 04:22 15,9 C 17,4 C 24,2 C 84 % 62 % 1014,1 hPa 0,0 l/m 5,6 km/h (1 Bft) O-NO 67 13,2 C 15,9 C 7,7 km/h (2 Bft)
18.09.2019 04:17 15,9 C 17,2 C 24,2 C 84 % 62 % 1014,0 hPa 0,0 l/m 3,9 km/h (1 Bft) O-SO 112 13,2 C 15,9 C 8,2 km/h (2 Bft)
18.09.2019 04:12 15,6 C 17,5 C 24,2 C 84 % 62 % 1014,0 hPa 0,0 l/m 2,4 km/h (1 Bft) S 180 12,9 C 15,6 C 2,9 km/h (1 Bft)
18.09.2019 04:07 15,6 C 17,4 C 24,2 C 83 % 62 % 1014,0 hPa 0,0 l/m 3,6 km/h (1 Bft) N-NW 337 12,7 C 15,6 C 2,7 km/h (1 Bft)
18.09.2019 04:02 15,5 C 17,4 C 24,2 C 84 % 62 % 1014,0 hPa 0,0 l/m 3,4 km/h (1 Bft) O-SO 112 12,8 C 15,5 C 4,3 km/h (1 Bft)
18.09.2019 03:57 15,3 C 17,5 C 24,2 C 83 % 62 % 1014,2 hPa 0,0 l/m 2,7 km/h (1 Bft) O 90 12,4 C 15,3 C 6,3 km/h (2 Bft)
18.09.2019 03:52 15,3 C 17,2 C 24,3 C 83 % 62 % 1014,2 hPa 0,0 l/m 2,9 km/h (1 Bft) W-NW 292 12,4 C 15,3 C 2,7 km/h (1 Bft)
18.09.2019 03:47 15,2 C 17,4 C 24,3 C 83 % 62 % 1014,2 hPa 0,0 l/m 2,7 km/h (1 Bft) NW 315 12,3 C 15,2 C 8,4 km/h (2 Bft)
18.09.2019 03:42 15,1 C 17,2 C 24,3 C 83 % 62 % 1014,2 hPa 0,0 l/m 2,4 km/h (1 Bft) O-NO 67 12,2 C 15,1 C 3,9 km/h (1 Bft)
18.09.2019 03:37 15,0 C 17,0 C 24,3 C 83 % 62 % 1013,9 hPa 0,0 l/m 3,4 km/h (1 Bft) O-NO 67 12,1 C 15,0 C 2,4 km/h (1 Bft)
18.09.2019 03:32 14,8 C 17,1 C 24,3 C 83 % 62 % 1013,9 hPa 0,0 l/m 5,3 km/h (1 Bft) O-NO 67 11,9 C 14,8 C 4,8 km/h (1 Bft)
18.09.2019 03:27 14,6 C 17,1 C 24,3 C 83 % 62 % 1013,9 hPa 0,0 l/m 5,6 km/h (1 Bft) O-NO 67 11,7 C 14,6 C 4,8 km/h (1 Bft)
18.09.2019 03:22 14,5 C 16,7 C 24,3 C 83 % 62 % 1013,9 hPa 0,0 l/m 3,9 km/h (1 Bft) N-NO 22 11,6 C 14,5 C 7,7 km/h (2 Bft)
18.09.2019 03:17 14,6 C 16,4 C 24,3 C 83 % 62 % 1013,6 hPa 0,0 l/m 2,4 km/h (1 Bft) N-NO 22 11,7 C 14,6 C 4,6 km/h (1 Bft)
18.09.2019 03:12 14,8 C 15,5 C 24,3 C 83 % 62 % 1013,6 hPa 0,0 l/m 2,9 km/h (1 Bft) N-NO 22 11,9 C 14,8 C 0,0 km/h (0 Bft)
18.09.2019 03:07 14,8 C 15,5 C 24,3 C 83 % 62 % 1013,6 hPa 0,0 l/m 0,7 km/h (0 Bft) NO 45 11,9 C 14,8 C 4,3 km/h (1 Bft)
18.09.2019 03:02 14,8 C 15,5 C 24,3 C 83 % 62 % 1013,6 hPa 0,0 l/m 0,7 km/h (0 Bft) NO 45 11,9 C 14,8 C 4,3 km/h (1 Bft)
18.09.2019 02:57 14,7 C 15,6 C 24,3 C 83 % 62 % 1013,6 hPa 0,0 l/m 0,0 km/h (0 Bft) O-NO 67 11,8 C 14,7 C 0,0 km/h (0 Bft)
18.09.2019 02:52 14,8 C 16,0 C 24,3 C 83 % 62 % 1013,6 hPa 0,0 l/m 1,4 km/h (1 Bft) SW 225 11,9 C 14,8 C 0,0 km/h (0 Bft)
18.09.2019 02:47 14,7 C 15,8 C 24,3 C 83 % 62 % 1013,6 hPa 0,0 l/m 1,7 km/h (1 Bft) N-NO 22 11,8 C 14,7 C 0,0 km/h (0 Bft)
18.09.2019 02:42 14,7 C 16,2 C 24,3 C 83 % 62 % 1013,6 hPa 0,0 l/m 2,2 km/h (1 Bft) W 270 11,8 C 14,7 C 5,1 km/h (1 Bft)
18.09.2019 02:37 14,8 C 15,9 C 24,4 C 83 % 62 % 1013,4 hPa 0,0 l/m 3,1 km/h (1 Bft) NO 45 11,9 C 14,8 C 0,0 km/h (0 Bft)
18.09.2019 02:32 14,8 C 16,1 C 24,4 C 83 % 62 % 1013,4 hPa 0,0 l/m 4,8 km/h (1 Bft) O-NO 67 11,9 C 14,8 C 5,6 km/h (1 Bft)
18.09.2019 02:28 14,7 C 15,9 C 24,4 C 83 % 62 % 1013,4 hPa 0,0 l/m 4,8 km/h (1 Bft) N-NO 22 11,8 C 14,7 C 7,7 km/h (2 Bft)
18.09.2019 02:26 14,7 C 16,0 C 24,4 C 83 % 62 % 1013,4 hPa 0,0 l/m 4,6 km/h (1 Bft) NO 45 11,8 C 14,7 C 7,5 km/h (2 Bft)
18.09.2019 02:24 14,7 C 16,0 C 24,3 C 83 % 62 % 1013,4 hPa 0,0 l/m 4,8 km/h (1 Bft) N 360 11,8 C 14,7 C 7,5 km/h (2 Bft)
18.09.2019 02:22 14,8 C 16,2 C 24,4 C 83 % 62 % 1013,4 hPa 0,0 l/m 4,8 km/h (1 Bft) N-NO 22 11,9 C 14,8 C 5,3 km/h (1 Bft)
18.09.2019 02:20 14,8 C 16,3 C 24,4 C 83 % 62 % 1013,4 hPa 0,0 l/m 5,3 km/h (1 Bft) N-NO 22 11,9 C 14,8 C 3,9 km/h (1 Bft)
18.09.2019 02:18 14,9 C 16,4 C 24,4 C 83 % 62 % 1013,6 hPa 0,0 l/m 5,8 km/h (2 Bft) N-NO 22 12,0 C 14,9 C 6,3 km/h (2 Bft)
18.09.2019 02:16 14,9 C 16,4 C 24,4 C 83 % 62 % 1013,6 hPa 0,0 l/m 6,3 km/h (2 Bft) O-NO 67 12,0 C 14,9 C 7,5 km/h (2 Bft)
18.09.2019 02:14 15,0 C 16,6 C 24,4 C 83 % 62 % 1013,6 hPa 0,0 l/m 6,0 km/h (2 Bft) NO 45 12,1 C 15,0 C 8,0 km/h (2 Bft)
18.09.2019 02:12 15,0 C 16,6 C 24,4 C 83 % 62 % 1013,6 hPa 0,0 l/m 5,6 km/h (1 Bft) N-NO 22 12,1 C 15,0 C 8,0 km/h (2 Bft)
18.09.2019 02:10 15,0 C 16,6 C 24,4 C 83 % 62 % 1013,6 hPa 0,0 l/m 4,8 km/h (1 Bft) NO 45 12,1 C 15,0 C 6,8 km/h (2 Bft)
18.09.2019 02:08 15,1 C 16,6 C 24,4 C 83 % 62 % 1013,6 hPa 0,0 l/m 4,3 km/h (1 Bft) NO 45 12,2 C 15,1 C 6,0 km/h (2 Bft)
18.09.2019 02:06 15,2 C 16,6 C 24,4 C 83 % 62 % 1013,6 hPa 0,0 l/m 4,3 km/h (1 Bft) NO 45 12,3 C 15,2 C 5,8 km/h (2 Bft)
18.09.2019 02:04 15,2 C 16,5 C 24,4 C 83 % 62 % 1013,6 hPa 0,0 l/m 4,8 km/h (1 Bft) N-NO 22 12,3 C 15,2 C 5,6 km/h (1 Bft)
18.09.2019 02:02 15,1 C 16,4 C 24,4 C 83 % 62 % 1013,6 hPa 0,0 l/m 4,3 km/h (1 Bft) N-NO 22 12,2 C 15,1 C 5,1 km/h (1 Bft)
18.09.2019 02:00 15,1 C 16,3 C 24,4 C 83 % 62 % 1013,6 hPa 0,0 l/m 4,3 km/h (1 Bft) N-NW 337 12,2 C 15,1 C 5,1 km/h (1 Bft)
18.09.2019 01:58 15,1 C 16,2 C 24,4 C 83 % 62 % 1013,3 hPa 0,0 l/m 5,1 km/h (1 Bft) N-NO 22 12,2 C 15,1 C 6,5 km/h (2 Bft)
18.09.2019 01:56 15,1 C 16,1 C 24,4 C 83 % 62 % 1013,3 hPa 0,0 l/m 5,6 km/h (1 Bft) NO 45 12,2 C 15,1 C 6,8 km/h (2 Bft)
18.09.2019 01:54 15,2 C 15,9 C 24,4 C 83 % 62 % 1013,3 hPa 0,0 l/m 5,1 km/h (1 Bft) NO 45 12,3 C 15,2 C 6,8 km/h (2 Bft)
18.09.2019 01:52 15,2 C 16,1 C 24,4 C 83 % 62 % 1013,3 hPa 0,0 l/m 6,0 km/h (2 Bft) N-NW 337 12,3 C 15,2 C 4,6 km/h (1 Bft)
18.09.2019 01:50 15,2 C 16,1 C 24,4 C 83 % 62 % 1013,3 hPa 0,0 l/m 6,3 km/h (2 Bft) N-NO 22 12,3 C 15,2 C 7,5 km/h (2 Bft)
18.09.2019 01:48 15,2 C 16,2 C 24,4 C 83 % 63 % 1013,3 hPa 0,0 l/m 6,3 km/h (2 Bft) N-NO 22 12,3 C 15,2 C 7,5 km/h (2 Bft)
18.09.2019 01:46 15,4 C 16,2 C 24,4 C 82 % 63 % 1013,3 hPa 0,0 l/m 6,0 km/h (2 Bft) N-NO 22 12,3 C 15,4 C 8,2 km/h (2 Bft)
18.09.2019 01:44 15,4 C 16,2 C 24,4 C 82 % 63 % 1013,3 hPa 0,0 l/m 5,6 km/h (1 Bft) N-NW 337 12,3 C 15,4 C 8,2 km/h (2 Bft)
18.09.2019 01:42 15,4 C 16,0 C 24,4 C 82 % 63 % 1013,3 hPa 0,0 l/m 4,6 km/h (1 Bft) NO 45 12,3 C 15,4 C 7,0 km/h (2 Bft)
18.09.2019 01:40 15,4 C 16,2 C 24,4 C 82 % 63 % 1013,3 hPa 0,0 l/m 4,3 km/h (1 Bft) N-NO 22 12,3 C 15,4 C 6,0 km/h (2 Bft)
18.09.2019 01:38 15,4 C 16,3 C 24,4 C 82 % 63 % 1013,6 hPa 0,0 l/m 4,6 km/h (1 Bft) N-NO 22 12,3 C 15,4 C 6,0 km/h (2 Bft)
18.09.2019 01:36 15,4 C 16,6 C 24,5 C 82 % 63 % 1013,6 hPa 0,0 l/m 5,3 km/h (1 Bft) N 360 12,3 C 15,4 C 4,8 km/h (1 Bft)
18.09.2019 01:34 15,4 C 16,8 C 24,5 C 82 % 63 % 1013,6 hPa 0,0 l/m 5,8 km/h (2 Bft) N-NW 337 12,3 C 15,4 C 4,3 km/h (1 Bft)
18.09.2019 01:32 15,4 C 16,8 C 24,4 C 82 % 63 % 1013,6 hPa 0,0 l/m 6,5 km/h (2 Bft) N-NO 22 12,3 C 15,4 C 6,8 km/h (2 Bft)
18.09.2019 01:30 15,4 C 16,8 C 24,4 C 82 % 63 % 1013,6 hPa 0,0 l/m 7,0 km/h (2 Bft) NO 45 12,3 C 15,1 C 11,3 km/h (2 Bft)
18.09.2019 01:28 15,4 C 16,7 C 24,5 C 82 % 63 % 1013,6 hPa 0,0 l/m 7,0 km/h (2 Bft) N-NO 22 12,3 C 15,1 C 10,1 km/h (2 Bft)
18.09.2019 01:26 15,4 C 16,7 C 24,5 C 82 % 63 % 1013,6 hPa 0,0 l/m 6,8 km/h (2 Bft) N-NO 22 12,3 C 15,2 C 10,1 km/h (2 Bft)
18.09.2019 01:24 15,3 C 16,9 C 24,5 C 82 % 63 % 1013,6 hPa 0,0 l/m 6,5 km/h (2 Bft) N-NO 22 12,2 C 15,3 C 9,2 km/h (2 Bft)
18.09.2019 01:22 15,3 C 16,8 C 24,5 C 82 % 63 % 1013,6 hPa 0,0 l/m 6,3 km/h (2 Bft) N-NO 22 12,2 C 15,3 C 7,0 km/h (2 Bft)
18.09.2019 01:20 15,4 C 16,8 C 24,5 C 82 % 63 % 1013,6 hPa 0,0 l/m 6,0 km/h (2 Bft) NO 45 12,3 C 15,4 C 6,5 km/h (2 Bft)
18.09.2019 01:18 15,4 C 16,7 C 24,5 C 82 % 63 % 1013,5 hPa 0,0 l/m 5,8 km/h (2 Bft) N-NO 22 12,3 C 15,4 C 6,3 km/h (2 Bft)
18.09.2019 01:16 15,4 C 16,8 C 24,5 C 82 % 63 % 1013,5 hPa 0,0 l/m 5,3 km/h (1 Bft) N-NO 22 12,3 C 15,4 C 7,2 km/h (2 Bft)
18.09.2019 01:14 15,4 C 16,7 C 24,5 C 82 % 63 % 1013,5 hPa 0,0 l/m 5,1 km/h (1 Bft) NO 45 12,3 C 15,4 C 7,2 km/h (2 Bft)
18.09.2019 01:12 15,4 C 16,7 C 24,5 C 82 % 63 % 1013,5 hPa 0,0 l/m 5,1 km/h (1 Bft) NO 45 12,3 C 15,4 C 6,0 km/h (2 Bft)
18.09.2019 01:10 15,4 C 16,6 C 24,5 C 82 % 63 % 1013,5 hPa 0,0 l/m 5,3 km/h (1 Bft) NO 45 12,3 C 15,4 C 5,3 km/h (1 Bft)
18.09.2019 01:08 15,4 C 16,6 C 24,5 C 82 % 63 % 1013,5 hPa 0,0 l/m 6,0 km/h (2 Bft) NO 45 12,3 C 15,4 C 5,3 km/h (1 Bft)
18.09.2019 01:06 15,4 C 16,6 C 24,5 C 82 % 63 % 1013,5 hPa 0,0 l/m 6,5 km/h (2 Bft) NO 45 12,3 C 15,4 C 6,5 km/h (2 Bft)
18.09.2019 01:04 15,4 C 16,4 C 24,5 C 82 % 63 % 1013,5 hPa 0,0 l/m 7,0 km/h (2 Bft) NO 45 12,3 C 15,1 C 7,2 km/h (2 Bft)
18.09.2019 01:02 15,4 C 16,6 C 24,5 C 82 % 63 % 1013,5 hPa 0,0 l/m 6,5 km/h (2 Bft) NO 45 12,3 C 15,4 C 7,5 km/h (2 Bft)
18.09.2019 01:00 15,6 C 16,6 C 24,5 C 81 % 63 % 1013,5 hPa 0,0 l/m 5,3 km/h (1 Bft) NO 45 12,3 C 15,6 C 8,7 km/h (2 Bft)
18.09.2019 00:58 15,6 C 16,5 C 24,5 C 81 % 63 % 1013,2 hPa 0,0 l/m 3,9 km/h (1 Bft) N-NO 22 12,3 C 15,6 C 8,7 km/h (2 Bft)
18.09.2019 00:56 15,7 C 16,6 C 24,5 C 81 % 63 % 1013,2 hPa 0,0 l/m 3,1 km/h (1 Bft) N-NO 22 12,4 C 15,7 C 7,7 km/h (2 Bft)
18.09.2019 00:54 15,8 C 16,6 C 24,5 C 81 % 63 % 1013,2 hPa 0,0 l/m 2,7 km/h (1 Bft) NO 45 12,5 C 15,8 C 6,8 km/h (2 Bft)
18.09.2019 00:52 15,8 C 16,4 C 24,5 C 81 % 63 % 1013,2 hPa 0,0 l/m 1,9 km/h (1 Bft) NO 45 12,5 C 15,8 C 3,9 km/h (1 Bft)
18.09.2019 00:50 15,8 C 16,5 C 24,5 C 81 % 63 % 1013,2 hPa 0,0 l/m 2,4 km/h (1 Bft) NO 45 12,5 C 15,8 C 0,0 km/h (0 Bft)
18.09.2019 00:48 15,8 C 16,5 C 24,5 C 81 % 63 % 1013,2 hPa 0,0 l/m 3,1 km/h (1 Bft) NO 45 12,5 C 15,8 C 3,1 km/h (1 Bft)
18.09.2019 00:46 15,8 C 16,4 C 24,5 C 81 % 63 % 1013,2 hPa 0,0 l/m 3,9 km/h (1 Bft) NO 45 12,5 C 15,8 C 4,8 km/h (1 Bft)
18.09.2019 00:44 15,7 C 16,6 C 24,5 C 81 % 63 % 1013,2 hPa 0,0 l/m 4,1 km/h (1 Bft) N-NO 22 12,4 C 15,7 C 4,8 km/h (1 Bft)
18.09.2019 00:42 15,8 C 16,8 C 24,5 C 80 % 63 % 1013,2 hPa 0,0 l/m 3,9 km/h (1 Bft) N-NO 22 12,4 C 15,8 C 4,8 km/h (1 Bft)
18.09.2019 00:40 15,8 C 16,7 C 24,5 C 80 % 63 % 1013,2 hPa 0,0 l/m 3,4 km/h (1 Bft) N-NO 22 12,4 C 15,8 C 6,5 km/h (2 Bft)
18.09.2019 00:38 15,8 C 16,7 C 24,5 C 80 % 63 % 1013,8 hPa 0,0 l/m 2,7 km/h (1 Bft) O-NO 67 12,4 C 15,8 C 5,8 km/h (2 Bft)
18.09.2019 00:36 15,8 C 16,8 C 24,5 C 80 % 63 % 1013,8 hPa 0,0 l/m 1,7 km/h (1 Bft) O-NO 67 12,4 C 15,8 C 5,8 km/h (2 Bft)
18.09.2019 00:34 15,8 C 16,7 C 24,5 C 80 % 63 % 1013,8 hPa 0,0 l/m 1,7 km/h (1 Bft) O-NO 67 12,4 C 15,8 C 4,6 km/h (1 Bft)
18.09.2019 00:32 15,8 C 16,5 C 24,5 C 80 % 63 % 1013,8 hPa 0,0 l/m 1,9 km/h (1 Bft) O-NO 67 12,4 C 15,8 C 0,0 km/h (0 Bft)
18.09.2019 00:30 15,8 C 16,6 C 24,6 C 80 % 63 % 1013,8 hPa 0,0 l/m 2,4 km/h (1 Bft) N-NW 337 12,4 C 15,8 C 6,0 km/h (2 Bft)
18.09.2019 00:28 15,8 C 16,6 C 24,6 C 80 % 63 % 1013,8 hPa 0,0 l/m 2,4 km/h (1 Bft) N-NW 337 12,4 C 15,8 C 2,4 km/h (1 Bft)
18.09.2019 00:26 15,8 C 16,2 C 24,6 C 80 % 63 % 1013,8 hPa 0,0 l/m 2,4 km/h (1 Bft) N-NO 22 12,4 C 15,8 C 6,0 km/h (2 Bft)
18.09.2019 00:24 15,8 C 16,3 C 24,6 C 80 % 63 % 1013,8 hPa 0,0 l/m 1,9 km/h (1 Bft) N 360 12,4 C 15,8 C 6,0 km/h (2 Bft)
18.09.2019 00:22 15,8 C 16,5 C 24,6 C 80 % 63 % 1013,8 hPa 0,0 l/m 1,7 km/h (1 Bft) N-NW 337 12,4 C 15,8 C 5,3 km/h (1 Bft)
18.09.2019 00:20 15,9 C 16,5 C 24,6 C 80 % 63 % 1013,8 hPa 0,0 l/m 1,4 km/h (1 Bft) NW 315 12,5 C 15,9 C 2,7 km/h (1 Bft)
18.09.2019 00:18 15,9 C 16,5 C 24,6 C 80 % 63 % 1013,2 hPa 0,0 l/m 1,4 km/h (1 Bft) W-SW 247 12,5 C 15,9 C 0,0 km/h (0 Bft)
18.09.2019 00:16 15,8 C 16,6 C 24,6 C 80 % 63 % 1013,2 hPa 0,0 l/m 1,4 km/h (1 Bft) S 180 12,4 C 15,8 C 0,0 km/h (0 Bft)
18.09.2019 00:14 16,0 C 16,6 C 24,6 C 80 % 63 % 1013,2 hPa 0,0 l/m 1,4 km/h (1 Bft) O-SO 112 12,5 C 16,0 C 5,1 km/h (1 Bft)
18.09.2019 00:12 16,2 C 16,4 C 24,6 C 79 % 63 % 1013,2 hPa 0,0 l/m 1,2 km/h (1 Bft) O-NO 67 12,6 C 16,2 C 5,1 km/h (1 Bft)
18.09.2019 00:10 16,2 C 16,4 C 24,6 C 79 % 63 % 1013,2 hPa 0,0 l/m 1,2 km/h (1 Bft) O-SO 112 12,6 C 16,2 C 0,0 km/h (0 Bft)
18.09.2019 00:08 16,2 C 16,4 C 24,6 C 79 % 63 % 1013,2 hPa 0,0 l/m 1,2 km/h (1 Bft) O-SO 112 12,6 C 16,2 C 0,0 km/h (0 Bft)
18.09.2019 00:06 16,2 C 16,4 C 24,6 C 79 % 63 % 1013,2 hPa 0,0 l/m 1,2 km/h (1 Bft) O-SO 112 12,6 C 16,2 C 0,0 km/h (0 Bft)
18.09.2019 00:04 16,2 C 16,4 C 24,6 C 79 % 63 % 1013,2 hPa 0,0 l/m 1,2 km/h (1 Bft) O-SO 112 12,6 C 16,2 C 0,0 km/h (0 Bft)
18.09.2019 00:02 16,2 C 16,4 C 24,6 C 79 % 63 % 1013,2 hPa 0,0 l/m 1,2 km/h (1 Bft) O-SO 112 12,6 C 16,2 C 0,0 km/h (0 Bft)
18.09.2019 00:00 16,2 C 16,4 C 24,6 C 79 % 63 % 1013,2 hPa 0,0 l/m 1,7 km/h (1 Bft) O 90 12,6 C 16,2 C 0,0 km/h (0 Bft)
_ Min-Zeit 19:46 19:36 10:04 13:10 12:12 00:00 - 02:57 - - 19:22 10:18 00:00
Minimum _ 12,7 C 13,0 C 22,9 C 56 % 49 % 1013,2 hPa - 0,0 km/h (0 Bft) - - 6,1 C 9,9 C 0,0 km/h (0 Bft)
_ Max-Zeit 15:14 13:16 00:00 04:02 00:00 19:40 00:00 12:26 - - 04:52 05:02 13:00
Maximum _ 17,1 C 31,5 C 24,6 C 84 % 63 % 1020,6 hPa 0,0 l/m 19,6 km/h
S-SO (3 Bft)
- - 13,4 C 16,4 C 34,0 km/h
O-NO (5 Bft)
Durchschnitt _ 15,3 C 18,3 C 23,8 C 70 % 55 % 1017,4 hPa #0,0 l/m 8,9 km/h (2 Bft) S-SO - 9,8 C 13,6 C 12,4 km/h (3 Bft)